Time,TemperatureF,DewpointF,PressureIn,WindDirection,WindDirectionDegrees,WindSpeedMPH,WindSpeedGustMPH,Humidity,HourlyPrecipIn,Conditions,Clouds,dailyrainin,SoftwareType,DateUTC
2013-03-04 00:00:00,29.6,22.0,29.54,NW,322,5.0,5.0,73,0.00,,,0.01,Wunderground v.1.15,2013-03-04 05:00:00,
2013-03-04 00:01:00,29.6,22.0,29.54,NW,322,5.0,12.0,73,0.00,,,0.01,Wunderground v.1.15,2013-03-04 05:01:00,
2013-03-04 00:03:00,29.5,21.9,29.54,West,268,4.0,12.0,73,0.00,,,0.01,Wunderground v.1.15,2013-03-04 05:03:00,
2013-03-04 00:04:00,29.5,21.6,29.54,NNW,331,4.0,12.0,72,0.00,,,0.01,Wunderground v.1.15,2013-03-04 05:04:00,
2013-03-04 00:07:00,29.5,21.6,29.54,NW,325,4.0,12.0,72,0.00,,,0.01,Wunderground v.1.15,2013-03-04 05:07:00,
2013-03-04 00:08:00,29.5,21.9,29.54,North,351,4.0,12.0,73,0.00,,,0.01,Wunderground v.1.15,2013-03-04 05:08:00,
2013-03-04 00:09:00,29.5,21.9,29.54,North,355,4.0,12.0,73,0.00,,,0.01,Wunderground v.1.15,2013-03-04 05:09:00,
2013-03-04 00:10:00,29.5,21.6,29.54,North,355,5.0,12.0,72,0.00,,,0.01,Wunderground v.1.15,2013-03-04 05:10:00,
2013-03-04 00:12:00,29.4,21.5,29.54,NW,322,5.0,12.0,72,0.00,,,0.01,Wunderground v.1.15,2013-03-04 05:12:00,
2013-03-04 00:15:00,29.4,21.5,29.54,West,275,5.0,12.0,72,0.00,,,0.01,Wunderground v.1.15,2013-03-04 05:15:00,
2013-03-04 00:20:00,29.3,21.7,29.54,NNW,347,5.0,5.0,73,0.00,,,0.01,Wunderground v.1.15,2013-03-04 05:20:00,
2013-03-04 00:23:00,29.3,21.7,29.54,NNW,339,5.0,12.0,73,0.00,,,0.01,Wunderground v.1.15,2013-03-04 05:23:00,
2013-03-04 00:24:00,29.3,21.7,29.54,NNW,338,4.0,12.0,73,0.00,,,0.01,Wunderground v.1.15,2013-03-04 05:24:00,
2013-03-04 00:28:00,29.3,22.0,29.54,NW,317,3.0,12.0,74,0.00,,,0.01,Wunderground v.1.15,2013-03-04 05:28:00,
2013-03-04 00:29:00,29.3,22.0,29.54,West,280,2.0,12.0,74,0.00,,,0.01,Wunderground v.1.15,2013-03-04 05:29:00,
2013-03-04 00:30:00,29.2,21.6,29.54,NW,315,2.0,12.0,73,0.00,,,0.01,Wunderground v.1.15,2013-03-04 05:30:00,
2013-03-04 00:33:00,29.1,21.5,29.54,NNW,343,2.0,12.0,73,0.00,,,0.01,Wunderground v.1.15,2013-03-04 05:33:00,
2013-03-04 00:35:00,29.0,21.7,29.54,NW,304,2.0,12.0,74,0.00,,,0.01,Wunderground v.1.15,2013-03-04 05:35:00,
2013-03-04 00:36:00,29.0,21.4,29.54,NW,304,3.0,12.0,73,0.00,,,0.01,Wunderground v.1.15,2013-03-04 05:36:00,
2013-03-04 00:39:00,28.9,21.3,29.54,West,273,3.0,12.0,73,0.00,,,0.01,Wunderground v.1.15,2013-03-04 05:39:00,
2013-03-04 00:40:00,28.9,21.3,29.54,West,280,3.0,3.0,73,0.00,,,0.01,Wunderground v.1.15,2013-03-04 05:40:00,
2013-03-04 00:41:00,28.9,21.3,29.54,West,264,3.0,5.0,73,0.00,,,0.01,Wunderground v.1.15,2013-03-04 05:41:00,
2013-03-04 00:43:00,28.8,21.2,29.54,WNW,292,3.0,12.0,73,0.00,,,0.01,Wunderground v.1.15,2013-03-04 05:43:00,
2013-03-04 00:44:00,28.7,21.1,29.54,WNW,289,3.0,12.0,73,0.00,,,0.01,Wunderground v.1.15,2013-03-04 05:44:00,
2013-03-04 00:46:00,28.7,21.5,29.54,WNW,285,3.0,12.0,74,0.00,,,0.01,Wunderground v.1.15,2013-03-04 05:46:00,
2013-03-04 00:49:00,28.6,21.4,29.55,West,281,4.0,12.0,74,0.00,,,0.01,Wunderground v.1.15,2013-03-04 05:49:00,
2013-03-04 00:51:00,28.6,21.4,29.55,WSW,252,4.0,12.0,74,0.00,,,0.01,Wunderground v.1.15,2013-03-04 05:51:00,
2013-03-04 00:52:00,28.5,21.3,29.55,West,265,3.0,12.0,74,0.00,,,0.01,Wunderground v.1.15,2013-03-04 05:52:00,
2013-03-04 00:54:00,28.5,21.3,29.55,NNW,342,4.0,12.0,74,0.00,,,0.01,Wunderground v.1.15,2013-03-04 05:54:00,
2013-03-04 00:57:00,28.5,21.3,29.55,West,279,4.0,12.0,74,0.00,,,0.01,Wunderground v.1.15,2013-03-04 05:57:00,
2013-03-04 00:58:00,28.5,21.3,29.55,WNW,299,4.0,12.0,74,0.00,,,0.01,Wunderground v.1.15,2013-03-04 05:58:00,
2013-03-04 01:00:00,28.5,21.3,29.55,WNW,292,4.0,8.0,74,0.00,,,0.01,Wunderground v.1.15,2013-03-04 06:00:00,
2013-03-04 01:04:00,28.4,21.2,29.55,North,355,5.0,8.0,74,0.00,,,0.01,Wunderground v.1.15,2013-03-04 06:04:00,
2013-03-04 01:06:00,28.4,21.2,29.55,West,278,5.0,8.0,74,0.00,,,0.01,Wunderground v.1.15,2013-03-04 06:06:00,
2013-03-04 01:09:00,28.3,21.1,29.55,NW,304,5.0,8.0,74,0.00,,,0.01,Wunderground v.1.15,2013-03-04 06:09:00,
2013-03-04 01:10:00,28.3,21.1,29.55,WNW,283,5.0,8.0,74,0.00,,,0.01,Wunderground v.1.15,2013-03-04 06:10:00,
2013-03-04 01:14:00,28.2,21.0,29.55,NW,317,5.0,8.0,74,0.00,,,0.01,Wunderground v.1.15,2013-03-04 06:14:00,
2013-03-04 01:15:00,28.2,21.0,29.55,NW,307,5.0,8.0,74,0.00,,,0.01,Wunderground v.1.15,2013-03-04 06:15:00,
2013-03-04 01:17:00,28.2,21.0,29.55,NNW,334,5.0,8.0,74,0.00,,,0.01,Wunderground v.1.15,2013-03-04 06:17:00,
2013-03-04 01:20:00,28.2,21.0,29.55,NW,308,5.0,8.0,74,0.00,,,0.01,Wunderground v.1.15,2013-03-04 06:20:00,
2013-03-04 01:22:00,28.1,20.9,29.55,West,267,5.0,10.0,74,0.00,,,0.01,Wunderground v.1.15,2013-03-04 06:22:00,
2013-03-04 01:23:00,28.1,20.9,29.55,WNW,283,5.0,10.0,74,0.00,,,0.01,Wunderground v.1.15,2013-03-04 06:23:00,
2013-03-04 01:24:00,28.1,20.9,29.55,West,272,5.0,10.0,74,0.00,,,0.01,Wunderground v.1.15,2013-03-04 06:24:00,
2013-03-04 01:26:00,28.1,20.9,29.55,NNW,336,5.0,10.0,74,0.00,,,0.01,Wunderground v.1.15,2013-03-04 06:26:00,
2013-03-04 01:27:00,28.1,20.9,29.55,WNW,285,5.0,10.0,74,0.00,,,0.01,Wunderground v.1.15,2013-03-04 06:27:00,
2013-03-04 01:29:00,28.1,20.9,29.55,NNW,341,5.0,10.0,74,0.00,,,0.01,Wunderground v.1.15,2013-03-04 06:29:00,
2013-03-04 01:31:00,28.1,20.9,29.55,NW,325,5.0,8.0,74,0.00,,,0.01,Wunderground v.1.15,2013-03-04 06:31:00,
2013-03-04 01:34:00,28.0,20.8,29.55,WSW,252,5.0,8.0,74,0.00,,,0.00,Wunderground v.1.15,2013-03-04 06:34:00,
2013-03-04 01:35:00,28.0,20.8,29.55,NNW,331,5.0,8.0,74,0.00,,,0.00,Wunderground v.1.15,2013-03-04 06:35:00,
2013-03-04 01:37:00,28.0,20.8,29.55,NW,309,5.0,8.0,74,0.00,,,0.00,Wunderground v.1.15,2013-03-04 06:37:00,
2013-03-04 01:38:00,28.0,20.8,29.55,NW,321,5.0,8.0,74,0.00,,,0.00,Wunderground v.1.15,2013-03-04 06:38:00,
2013-03-04 01:42:00,28.0,20.8,29.55,NW,305,4.0,8.0,74,0.00,,,0.00,Wunderground v.1.15,2013-03-04 06:42:00,
2013-03-04 01:44:00,27.9,20.7,29.55,NW,305,5.0,8.0,74,0.00,,,0.00,Wunderground v.1.15,2013-03-04 06:44:00,
2013-03-04 01:46:00,27.9,20.7,29.55,NW,314,5.0,9.0,74,0.00,,,0.00,Wunderground v.1.15,2013-03-04 06:46:00,
2013-03-04 01:48:00,27.9,20.7,29.55,NW,319,6.0,9.0,74,0.00,,,0.00,Wunderground v.1.15,2013-03-04 06:48:00,
2013-03-04 01:50:00,27.9,20.7,29.55,NNW,340,6.0,12.0,74,0.00,,,0.00,Wunderground v.1.15,2013-03-04 06:50:00,
2013-03-04 01:53:00,27.9,20.7,29.55,NW,315,7.0,12.0,74,0.00,,,0.00,Wunderground v.1.15,2013-03-04 06:53:00,
2013-03-04 01:54:00,27.9,20.7,29.55,NNW,328,7.0,12.0,74,0.00,,,0.00,Wunderground v.1.15,2013-03-04 06:54:00,
2013-03-04 01:59:00,27.9,20.7,29.54,NNW,333,6.0,12.0,74,0.00,,,0.00,Wunderground v.1.15,2013-03-04 06:59:00,
2013-03-04 02:00:00,27.9,20.7,29.54,NNW,336,6.0,12.0,74,0.00,,,0.00,Wunderground v.1.15,2013-03-04 07:00:00,
2013-03-04 02:02:00,27.8,20.3,29.54,NW,317,6.0,12.0,73,0.00,,,0.00,Wunderground v.1.15,2013-03-04 07:02:00,
2013-03-04 02:05:00,27.8,20.3,29.54,NW,313,7.0,12.0,73,0.00,,,0.00,Wunderground v.1.15,2013-03-04 07:05:00,
2013-03-04 02:07:00,27.8,20.3,29.55,West,269,6.0,12.0,73,0.00,,,0.00,Wunderground v.1.15,2013-03-04 07:07:00,
2013-03-04 02:08:00,27.8,20.3,29.54,NW,308,6.0,12.0,73,0.00,,,0.00,Wunderground v.1.15,2013-03-04 07:08:00,
2013-03-04 02:11:00,27.7,20.2,29.54,NW,313,6.0,12.0,73,0.00,,,0.00,Wunderground v.1.15,2013-03-04 07:11:00,
2013-03-04 02:13:00,27.7,20.2,29.54,West,267,6.0,12.0,73,0.00,,,0.00,Wunderground v.1.15,2013-03-04 07:13:00,
2013-03-04 02:14:00,27.7,20.2,29.54,WNW,297,7.0,12.0,73,0.00,,,0.00,Wunderground v.1.15,2013-03-04 07:14:00,
2013-03-04 02:16:00,27.7,20.2,29.55,NNW,340,7.0,12.0,73,0.00,,,0.00,Wunderground v.1.15,2013-03-04 07:16:00,
2013-03-04 02:17:00,27.7,20.2,29.55,NNW,328,6.0,12.0,73,0.00,,,0.00,Wunderground v.1.15,2013-03-04 07:17:00,
2013-03-04 02:20:00,27.6,20.1,29.54,NW,318,6.0,6.0,73,0.00,,,0.00,Wunderground v.1.15,2013-03-04 07:20:00,
2013-03-04 02:21:00,27.6,20.1,29.55,NNW,332,6.0,10.0,73,0.00,,,0.00,Wunderground v.1.15,2013-03-04 07:21:00,
2013-03-04 02:22:00,27.6,20.1,29.54,WNW,286,6.0,12.0,73,0.00,,,0.00,Wunderground v.1.15,2013-03-04 07:22:00,
2013-03-04 02:23:00,27.6,20.1,29.55,WNW,289,6.0,12.0,73,0.00,,,0.00,Wunderground v.1.15,2013-03-04 07:23:00,
2013-03-04 02:28:00,27.5,20.0,29.55,NW,323,6.0,12.0,73,0.00,,,0.00,Wunderground v.1.15,2013-03-04 07:28:00,
2013-03-04 02:29:00,27.5,20.0,29.55,NW,321,5.0,12.0,73,0.00,,,0.00,Wunderground v.1.15,2013-03-04 07:29:00,
2013-03-04 02:30:00,27.5,20.3,29.55,WNW,299,5.0,12.0,74,0.00,,,0.00,Wunderground v.1.15,2013-03-04 07:30:00,
2013-03-04 02:33:00,27.5,20.0,29.55,WSW,258,5.0,12.0,73,0.00,,,0.00,Wunderground v.1.15,2013-03-04 07:33:00,
2013-03-04 02:36:00,27.4,20.2,29.55,West,273,4.0,12.0,74,0.00,,,0.00,Wunderground v.1.15,2013-03-04 07:36:00,
2013-03-04 02:37:00,27.4,20.2,29.55,WNW,288,4.0,12.0,74,0.00,,,0.00,Wunderground v.1.15,2013-03-04 07:37:00,
2013-03-04 02:40:00,27.4,20.2,29.55,West,280,5.0,5.0,74,0.00,,,0.00,Wunderground v.1.15,2013-03-04 07:40:00,
2013-03-04 02:42:00,27.4,20.2,29.55,West,277,4.0,12.0,74,0.00,,,0.00,Wunderground v.1.15,2013-03-04 07:42:00,
2013-03-04 02:43:00,27.4,20.2,29.55,WNW,296,4.0,12.0,74,0.00,,,0.00,Wunderground v.1.15,2013-03-04 07:43:00,
2013-03-04 02:45:00,27.4,20.2,29.55,West,274,3.0,12.0,74,0.00,,,0.00,Wunderground v.1.15,2013-03-04 07:45:00,
2013-03-04 02:47:00,27.4,20.2,29.55,WNW,300,3.0,12.0,74,0.00,,,0.00,Wunderground v.1.15,2013-03-04 07:47:00,
2013-03-04 02:48:00,27.4,20.2,29.55,WNW,296,3.0,12.0,74,0.00,,,0.00,Wunderground v.1.15,2013-03-04 07:48:00,
2013-03-04 02:49:00,27.4,20.2,29.55,West,279,3.0,12.0,74,0.00,,,0.00,Wunderground v.1.15,2013-03-04 07:49:00,
2013-03-04 02:50:00,27.3,20.1,29.55,WNW,284,3.0,12.0,74,0.00,,,0.00,Wunderground v.1.15,2013-03-04 07:50:00,
2013-03-04 02:52:00,27.3,20.1,29.55,NNW,327,3.0,12.0,74,0.00,,,0.00,Wunderground v.1.15,2013-03-04 07:52:00,
2013-03-04 02:53:00,27.3,20.1,29.55,WNW,285,4.0,12.0,74,0.00,,,0.00,Wunderground v.1.15,2013-03-04 07:53:00,
2013-03-04 02:56:00,27.3,20.1,29.55,NW,326,4.0,12.0,74,0.00,,,0.00,Wunderground v.1.15,2013-03-04 07:56:00,
2013-03-04 02:58:00,27.3,20.1,29.55,WNW,302,4.0,12.0,74,0.00,,,0.00,Wunderground v.1.15,2013-03-04 07:58:00,
2013-03-04 03:00:00,27.2,20.0,29.55,West,266,5.0,10.0,74,0.00,,,0.00,Wunderground v.1.15,2013-03-04 08:00:00,
2013-03-04 03:02:00,27.2,20.0,29.55,WNW,299,5.0,10.0,74,0.00,,,0.00,Wunderground v.1.15,2013-03-04 08:02:00,
2013-03-04 03:04:00,27.2,20.0,29.55,WNW,286,5.0,10.0,74,0.00,,,0.00,Wunderground v.1.15,2013-03-04 08:04:00,
2013-03-04 03:06:00,27.1,19.6,29.55,WNW,292,6.0,10.0,73,0.00,,,0.00,Wunderground v.1.15,2013-03-04 08:06:00,
2013-03-04 03:08:00,27.1,19.9,29.55,NNW,335,6.0,10.0,74,0.00,,,0.00,Wunderground v.1.15,2013-03-04 08:08:00,
2013-03-04 03:12:00,27.0,19.5,29.55,WNW,285,5.0,10.0,73,0.00,,,0.00,Wunderground v.1.15,2013-03-04 08:12:00,
2013-03-04 03:13:00,26.9,19.4,29.55,WNW,283,4.0,10.0,73,0.00,,,0.00,Wunderground v.1.15,2013-03-04 08:13:00,
2013-03-04 03:14:00,26.9,19.4,29.55,West,269,4.0,10.0,73,0.00,,,0.00,Wunderground v.1.15,2013-03-04 08:14:00,
2013-03-04 03:16:00,26.8,19.3,29.55,WNW,290,4.0,10.0,73,0.00,,,0.00,Wunderground v.1.15,2013-03-04 08:16:00,
2013-03-04 03:18:00,26.7,19.2,29.55,West,279,4.0,10.0,73,0.00,,,0.00,Wunderground v.1.15,2013-03-04 08:18:00,
2013-03-04 03:20:00,26.6,19.1,29.55,West,261,5.0,10.0,73,0.00,,,0.00,Wunderground v.1.15,2013-03-04 08:20:00,
2013-03-04 03:22:00,26.6,19.1,29.55,West,279,5.0,10.0,73,0.00,,,0.00,Wunderground v.1.15,2013-03-04 08:22:00,
2013-03-04 03:26:00,26.4,18.9,29.55,WNW,282,4.0,10.0,73,0.00,,,0.00,Wunderground v.1.15,2013-03-04 08:26:00,
2013-03-04 03:28:00,26.4,19.2,29.55,WNW,286,4.0,10.0,74,0.00,,,0.00,Wunderground v.1.15,2013-03-04 08:28:00,
2013-03-04 03:29:00,26.3,19.1,29.55,West,281,4.0,10.0,74,0.00,,,0.00,Wunderground v.1.15,2013-03-04 08:29:00,
2013-03-04 03:35:00,26.1,18.6,29.55,WSW,256,5.0,10.0,73,0.00,,,0.00,Wunderground v.1.15,2013-03-04 08:35:00,
2013-03-04 03:37:00,26.1,18.6,29.55,NW,314,5.0,10.0,73,0.00,,,0.00,Wunderground v.1.15,2013-03-04 08:37:00,
2013-03-04 03:39:00,26.1,18.6,29.55,NW,315,5.0,10.0,73,0.00,,,0.00,Wunderground v.1.15,2013-03-04 08:39:00,
2013-03-04 03:42:00,26.1,18.9,29.55,NW,317,5.0,10.0,74,0.00,,,0.00,Wunderground v.1.15,2013-03-04 08:42:00,
2013-03-04 03:44:00,26.0,18.5,29.55,West,263,5.0,10.0,73,0.00,,,0.00,Wunderground v.1.15,2013-03-04 08:44:00,
2013-03-04 03:47:00,26.0,18.5,29.56,WNW,288,5.0,10.0,73,0.00,,,0.00,Wunderground v.1.15,2013-03-04 08:47:00,
2013-03-04 03:48:00,26.0,18.5,29.56,WSW,252,4.0,10.0,73,0.00,,,0.00,Wunderground v.1.15,2013-03-04 08:48:00,
2013-03-04 03:52:00,25.9,18.4,29.56,West,264,4.0,10.0,73,0.00,,,0.00,Wunderground v.1.15,2013-03-04 08:52:00,
2013-03-04 03:53:00,25.9,18.7,29.56,WNW,302,4.0,10.0,74,0.00,,,0.00,Wunderground v.1.15,2013-03-04 08:53:00,
2013-03-04 03:58:00,25.8,18.7,29.56,WSW,237,4.0,10.0,74,0.00,,,0.00,Wunderground v.1.15,2013-03-04 08:58:00,
2013-03-04 03:59:00,25.8,18.7,29.56,WNW,284,4.0,10.0,74,0.00,,,0.00,Wunderground v.1.15,2013-03-04 08:59:00,
2013-03-04 04:00:00,25.7,18.6,29.56,West,269,4.0,4.0,74,0.00,,,0.00,Wunderground v.1.15,2013-03-04 09:00:00,
2013-03-04 04:04:00,25.7,18.6,29.56,WSW,258,4.0,10.0,74,0.00,,,0.00,Wunderground v.1.15,2013-03-04 09:04:00,
2013-03-04 04:05:00,25.7,18.6,29.56,WNW,287,4.0,10.0,74,0.00,,,0.00,Wunderground v.1.15,2013-03-04 09:05:00,
2013-03-04 04:07:00,25.7,18.6,29.56,WSW,246,4.0,10.0,74,0.00,,,0.00,Wunderground v.1.15,2013-03-04 09:07:00,
2013-03-04 04:09:00,25.6,18.5,29.56,WNW,290,4.0,10.0,74,0.00,,,0.00,Wunderground v.1.15,2013-03-04 09:09:00,
2013-03-04 04:10:00,25.6,18.5,29.56,WNW,295,4.0,10.0,74,0.00,,,0.00,Wunderground v.1.15,2013-03-04 09:10:00,
2013-03-04 04:13:00,25.6,18.5,29.56,WNW,286,3.0,10.0,74,0.00,,,0.00,Wunderground v.1.15,2013-03-04 09:13:00,
2013-03-04 04:16:00,25.6,18.5,29.56,WNW,286,4.0,10.0,74,0.00,,,0.00,Wunderground v.1.15,2013-03-04 09:16:00,
2013-03-04 04:17:00,25.5,18.4,29.56,West,274,4.0,10.0,74,0.00,,,0.00,Wunderground v.1.15,2013-03-04 09:17:00,
2013-03-04 04:21:00,25.4,18.3,29.56,West,267,4.0,10.0,74,0.00,,,0.00,Wunderground v.1.15,2013-03-04 09:21:00,
2013-03-04 04:22:00,25.4,18.3,29.56,NW,313,4.0,10.0,74,0.00,,,0.00,Wunderground v.1.15,2013-03-04 09:22:00,
2013-03-04 04:23:00,25.4,18.3,29.56,NW,312,4.0,10.0,74,0.00,,,0.00,Wunderground v.1.15,2013-03-04 09:23:00,
2013-03-04 04:27:00,25.4,18.3,29.56,NW,315,3.0,10.0,74,0.00,,,0.00,Wunderground v.1.15,2013-03-04 09:27:00,
2013-03-04 04:28:00,25.4,18.3,29.56,NNW,339,3.0,10.0,74,0.00,,,0.00,Wunderground v.1.15,2013-03-04 09:28:00,
2013-03-04 04:29:00,25.4,18.3,29.56,NW,319,3.0,10.0,74,0.00,,,0.00,Wunderground v.1.15,2013-03-04 09:29:00,
2013-03-04 04:33:00,25.4,18.3,29.56,NW,323,3.0,10.0,74,0.00,,,0.00,Wunderground v.1.15,2013-03-04 09:33:00,
2013-03-04 04:36:00,25.4,18.3,29.57,NNW,346,4.0,10.0,74,0.00,,,0.00,Wunderground v.1.15,2013-03-04 09:36:00,
2013-03-04 04:37:00,25.4,18.3,29.57,NNW,346,3.0,10.0,74,0.00,,,0.00,Wunderground v.1.15,2013-03-04 09:37:00,
2013-03-04 04:38:00,25.5,18.4,29.57,North,351,3.0,10.0,74,0.00,,,0.00,Wunderground v.1.15,2013-03-04 09:38:00,
2013-03-04 04:41:00,25.5,18.4,29.57,WNW,302,3.0,10.0,74,0.00,,,0.00,Wunderground v.1.15,2013-03-04 09:41:00,
2013-03-04 04:43:00,25.5,18.4,29.57,WNW,288,4.0,10.0,74,0.00,,,0.00,Wunderground v.1.15,2013-03-04 09:43:00,
2013-03-04 04:44:00,25.5,18.4,29.57,NNW,341,4.0,10.0,74,0.00,,,0.00,Wunderground v.1.15,2013-03-04 09:44:00,
2013-03-04 04:49:00,25.5,18.4,29.57,NNW,342,6.0,10.0,74,0.00,,,0.00,Wunderground v.1.15,2013-03-04 09:49:00,
2013-03-04 04:50:00,25.4,18.3,29.57,NNW,342,5.0,10.0,74,0.00,,,0.00,Wunderground v.1.15,2013-03-04 09:50:00,
2013-03-04 04:51:00,25.5,18.4,29.57,NNW,331,5.0,10.0,74,0.00,,,0.00,Wunderground v.1.15,2013-03-04 09:51:00,
2013-03-04 04:55:00,25.5,18.4,29.57,WNW,300,5.0,10.0,74,0.00,,,0.00,Wunderground v.1.15,2013-03-04 09:55:00,
2013-03-04 04:56:00,25.4,18.3,29.57,NNW,338,5.0,10.0,74,0.00,,,0.00,Wunderground v.1.15,2013-03-04 09:56:00,
2013-03-04 04:57:00,25.4,18.3,29.57,NNW,338,4.0,10.0,74,0.00,,,0.00,Wunderground v.1.15,2013-03-04 09:57:00,
2013-03-04 05:00:00,25.4,18.3,29.57,WNW,302,3.0,14.0,74,0.00,,,0.00,Wunderground v.1.15,2013-03-04 10:00:00,
2013-03-04 05:03:00,25.3,18.2,29.57,West,271,3.0,14.0,74,0.00,,,0.00,Wunderground v.1.15,2013-03-04 10:03:00,
2013-03-04 05:06:00,25.4,18.3,29.57,NNW,346,3.0,14.0,74,0.00,,,0.00,Wunderground v.1.15,2013-03-04 10:06:00,
2013-03-04 05:08:00,25.4,18.3,29.57,NNW,328,4.0,14.0,74,0.00,,,0.00,Wunderground v.1.15,2013-03-04 10:08:00,
2013-03-04 05:09:00,25.4,18.3,29.57,NNW,328,4.0,14.0,74,0.00,,,0.00,Wunderground v.1.15,2013-03-04 10:09:00,
2013-03-04 05:11:00,25.4,18.3,29.57,NNW,327,4.0,8.0,74,0.00,,,0.00,Wunderground v.1.15,2013-03-04 10:11:00,
2013-03-04 05:12:00,25.4,18.3,29.57,NW,321,4.0,14.0,74,0.00,,,0.00,Wunderground v.1.15,2013-03-04 10:12:00,
2013-03-04 05:14:00,25.4,18.3,29.57,NW,325,4.0,14.0,74,0.00,,,0.00,Wunderground v.1.15,2013-03-04 10:14:00,
2013-03-04 05:18:00,25.4,18.3,29.57,NNW,338,4.0,14.0,74,0.00,,,0.00,Wunderground v.1.15,2013-03-04 10:18:00,
2013-03-04 05:20:00,25.4,18.3,29.57,NNW,340,4.0,4.0,74,0.00,,,0.00,Wunderground v.1.15,2013-03-04 10:20:00,
2013-03-04 05:21:00,25.4,18.3,29.57,WNW,293,4.0,5.0,74,0.00,,,0.00,Wunderground v.1.15,2013-03-04 10:21:00,
2013-03-04 05:25:00,25.4,18.3,29.57,NNW,334,4.0,14.0,74,0.00,,,0.00,Wunderground v.1.15,2013-03-04 10:25:00,
2013-03-04 05:26:00,25.4,18.3,29.57,NNW,334,4.0,14.0,74,0.00,,,0.00,Wunderground v.1.15,2013-03-04 10:26:00,
2013-03-04 05:28:00,25.5,18.4,29.57,NNW,344,4.0,14.0,74,0.00,,,0.00,Wunderground v.1.15,2013-03-04 10:28:00,
2013-03-04 05:30:00,25.5,18.4,29.57,NNW,336,4.0,4.0,74,0.00,,,0.00,Wunderground v.1.15,2013-03-04 10:30:00,
2013-03-04 05:31:00,25.4,18.3,29.57,NNW,342,3.0,5.0,74,0.00,,,0.00,Wunderground v.1.15,2013-03-04 10:31:00,
2013-03-04 05:33:00,25.5,18.4,29.57,NW,318,3.0,14.0,74,0.00,,,0.00,Wunderground v.1.15,2013-03-04 10:33:00,
2013-03-04 05:37:00,25.4,18.3,29.57,NNW,328,2.0,14.0,74,0.00,,,0.00,Wunderground v.1.15,2013-03-04 10:37:00,
2013-03-04 05:38:00,25.4,18.6,29.57,NNW,328,2.0,14.0,75,0.00,,,0.00,Wunderground v.1.15,2013-03-04 10:38:00,
2013-03-04 05:43:00,25.4,18.6,29.57,NNW,332,2.0,14.0,75,0.00,,,0.00,Wunderground v.1.15,2013-03-04 10:43:00,
2013-03-04 05:44:00,25.4,18.6,29.57,NW,321,2.0,14.0,75,0.00,,,0.00,Wunderground v.1.15,2013-03-04 10:44:00,
2013-03-04 05:48:00,25.4,18.6,29.57,NNW,343,3.0,14.0,75,0.00,,,0.00,Wunderground v.1.15,2013-03-04 10:48:00,
2013-03-04 05:49:00,25.5,18.7,29.57,NNW,333,3.0,14.0,75,0.00,,,0.00,Wunderground v.1.15,2013-03-04 10:49:00,
2013-03-04 05:52:00,25.5,18.7,29.57,WNW,290,3.0,14.0,75,0.00,,,0.00,Wunderground v.1.15,2013-03-04 10:52:00,
2013-03-04 05:54:00,25.5,18.7,29.57,WNW,284,3.0,14.0,75,0.00,,,0.00,Wunderground v.1.15,2013-03-04 10:54:00,
2013-03-04 05:55:00,25.4,18.6,29.57,NW,311,4.0,14.0,75,0.00,,,0.00,Wunderground v.1.15,2013-03-04 10:55:00,
2013-03-04 05:57:00,25.4,18.6,29.57,NW,304,4.0,14.0,75,0.00,,,0.00,Wunderground v.1.15,2013-03-04 10:57:00,
2013-03-04 06:00:00,25.4,18.6,29.57,NNW,337,3.0,3.0,75,0.00,,,0.00,Wunderground v.1.15,2013-03-04 11:00:00,
2013-03-04 06:02:00,25.4,18.6,29.57,NNW,338,3.0,10.0,75,0.00,,,0.00,Wunderground v.1.15,2013-03-04 11:02:00,
2013-03-04 06:05:00,25.4,18.6,29.57,NW,309,2.0,10.0,75,0.00,,,0.00,Wunderground v.1.15,2013-03-04 11:05:00,
2013-03-04 06:06:00,25.4,18.6,29.57,NW,309,2.0,10.0,75,0.00,,,0.00,Wunderground v.1.15,2013-03-04 11:06:00,
2013-03-04 06:10:00,25.4,18.6,29.57,NW,306,2.0,10.0,75,0.00,,,0.00,Wunderground v.1.15,2013-03-04 11:10:00,
2013-03-04 06:11:00,25.4,18.6,29.57,NW,317,2.0,10.0,75,0.00,,,0.00,Wunderground v.1.15,2013-03-04 11:11:00,
2013-03-04 06:12:00,25.4,18.6,29.57,NW,313,3.0,10.0,75,0.00,,,0.00,Wunderground v.1.15,2013-03-04 11:12:00,
2013-03-04 06:13:00,25.4,18.6,29.57,NW,313,3.0,10.0,75,0.00,,,0.00,Wunderground v.1.15,2013-03-04 11:13:00,
2013-03-04 06:17:00,25.3,18.5,29.57,NNW,329,3.0,10.0,75,0.00,,,0.00,Wunderground v.1.15,2013-03-04 11:17:00,
2013-03-04 06:19:00,25.3,18.5,29.57,NNW,329,3.0,10.0,75,0.00,,,0.00,Wunderground v.1.15,2013-03-04 11:19:00,
2013-03-04 06:21:00,25.3,18.5,29.57,NNW,337,2.0,10.0,75,0.00,,,0.00,Wunderground v.1.15,2013-03-04 11:21:00,
2013-03-04 06:23:00,25.3,18.5,29.57,NW,315,2.0,10.0,75,0.00,,,0.00,Wunderground v.1.15,2013-03-04 11:23:00,
2013-03-04 06:25:00,25.4,18.9,29.57,NW,321,2.0,10.0,76,0.00,,,0.00,Wunderground v.1.15,2013-03-04 11:25:00,
2013-03-04 06:28:00,25.4,18.6,29.57,NW,312,2.0,10.0,75,0.00,,,0.00,Wunderground v.1.15,2013-03-04 11:28:00,
2013-03-04 06:29:00,25.4,18.6,29.57,NW,312,2.0,10.0,75,0.00,,,0.00,Wunderground v.1.15,2013-03-04 11:29:00,
2013-03-04 06:30:00,25.4,18.6,29.57,NW,312,2.0,2.0,75,0.00,,,0.00,Wunderground v.1.15,2013-03-04 11:30:00,
2013-03-04 06:34:00,25.4,18.6,29.57,NW,313,1.0,10.0,75,0.00,,,0.00,Wunderground v.1.15,2013-03-04 11:34:00,
2013-03-04 06:35:00,25.4,18.6,29.57,NW,313,1.0,10.0,75,0.00,,,0.00,Wunderground v.1.15,2013-03-04 11:35:00,
2013-03-04 06:37:00,25.4,18.6,29.57,NW,313,1.0,10.0,75,0.00,,,0.00,Wunderground v.1.15,2013-03-04 11:37:00,
2013-03-04 06:40:00,25.4,18.6,29.57,NW,313,0.0,10.0,75,0.00,,,0.00,Wunderground v.1.15,2013-03-04 11:40:00,
2013-03-04 06:41:00,25.4,18.6,29.57,NW,313,0.0,10.0,75,0.00,,,0.00,Wunderground v.1.15,2013-03-04 11:41:00,
2013-03-04 06:43:00,25.5,18.7,29.57,NW,315,0.0,10.0,75,0.00,,,0.00,Wunderground v.1.15,2013-03-04 11:43:00,
2013-03-04 06:46:00,25.5,18.7,29.57,NW,315,0.0,10.0,75,0.00,,,0.00,Wunderground v.1.15,2013-03-04 11:46:00,
2013-03-04 06:47:00,25.5,18.7,29.57,NW,315,0.0,10.0,75,0.00,,,0.00,Wunderground v.1.15,2013-03-04 11:47:00,
2013-03-04 06:48:00,25.5,18.7,29.57,NW,315,0.0,10.0,75,0.00,,,0.00,Wunderground v.1.15,2013-03-04 11:48:00,
2013-03-04 06:49:00,25.5,18.7,29.57,NW,315,0.0,10.0,75,0.00,,,0.00,Wunderground v.1.15,2013-03-04 11:49:00,
2013-03-04 06:51:00,25.5,18.7,29.57,NNW,327,1.0,10.0,75,0.00,,,0.00,Wunderground v.1.15,2013-03-04 11:51:00,
2013-03-04 06:53:00,25.6,18.8,29.57,NNW,344,1.0,10.0,75,0.00,,,0.00,Wunderground v.1.15,2013-03-04 11:53:00,
2013-03-04 06:56:00,25.7,18.9,29.57,NW,326,3.0,10.0,75,0.00,,,0.00,Wunderground v.1.15,2013-03-04 11:56:00,
2013-03-04 06:58:00,25.8,19.0,29.57,NW,318,3.0,10.0,75,0.00,,,0.00,Wunderground v.1.15,2013-03-04 11:58:00,
2013-03-04 06:59:00,25.9,19.1,29.57,NW,308,4.0,10.0,75,0.00,,,0.00,Wunderground v.1.15,2013-03-04 11:59:00,
2013-03-04 07:03:00,26.2,19.0,29.57,NNW,332,5.0,8.0,74,0.00,,,0.00,Wunderground v.1.15,2013-03-04 12:03:00,
2013-03-04 07:05:00,26.3,19.1,29.57,NNW,327,6.0,8.0,74,0.00,,,0.00,Wunderground v.1.15,2013-03-04 12:05:00,
2013-03-04 07:09:00,26.7,19.2,29.58,West,266,5.0,8.0,73,0.00,,,0.00,Wunderground v.1.15,2013-03-04 12:09:00,
2013-03-04 07:10:00,26.7,19.2,29.58,NW,304,5.0,5.0,73,0.00,,,0.00,Wunderground v.1.15,2013-03-04 12:10:00,
2013-03-04 07:12:00,26.7,19.2,29.58,WNW,290,5.0,7.0,73,0.00,,,0.00,Wunderground v.1.15,2013-03-04 12:12:00,
2013-03-04 07:16:00,26.8,19.3,29.58,WNW,299,3.0,7.0,73,0.00,,,0.00,Wunderground v.1.15,2013-03-04 12:16:00,
2013-03-04 07:20:00,27.0,19.2,29.58,WNW,283,3.0,6.0,72,0.00,,,0.00,Wunderground v.1.15,2013-03-04 12:20:00,
2013-03-04 07:21:00,26.9,19.1,29.58,NW,321,3.0,6.0,72,0.00,,,0.00,Wunderground v.1.15,2013-03-04 12:21:00,
2013-03-04 07:22:00,26.9,19.1,29.58,NNW,329,3.0,6.0,72,0.00,,,0.00,Wunderground v.1.15,2013-03-04 12:22:00,
2013-03-04 07:25:00,26.9,19.1,29.58,West,272,3.0,8.0,72,0.00,,,0.00,Wunderground v.1.15,2013-03-04 12:25:00,
2013-03-04 07:26:00,26.9,19.1,29.58,WNW,296,4.0,8.0,72,0.00,,,0.00,Wunderground v.1.15,2013-03-04 12:26:00,
2013-03-04 07:28:00,26.9,19.1,29.58,WNW,287,4.0,8.0,72,0.00,,,0.00,Wunderground v.1.15,2013-03-04 12:28:00,
2013-03-04 07:32:00,27.2,19.4,29.58,NW,306,5.0,5.0,72,0.00,,,0.00,Wunderground v.1.15,2013-03-04 12:32:00,
2013-03-04 07:36:00,27.4,19.6,29.58,NNW,346,4.0,5.0,72,0.00,,,0.00,Wunderground v.1.15,2013-03-04 12:36:00,
2013-03-04 07:37:00,27.4,19.2,29.58,WNW,287,3.0,8.0,71,0.00,,,0.00,Wunderground v.1.15,2013-03-04 12:37:00,
2013-03-04 07:38:00,27.4,19.2,29.58,West,273,4.0,8.0,71,0.00,,,0.00,Wunderground v.1.15,2013-03-04 12:38:00,
2013-03-04 07:42:00,27.3,19.1,29.57,WNW,295,4.0,5.0,71,0.00,,,0.00,Wunderground v.1.15,2013-03-04 12:42:00,
2013-03-04 07:43:00,27.3,19.1,29.57,NNW,334,4.0,5.0,71,0.00,,,0.00,Wunderground v.1.15,2013-03-04 12:43:00,
2013-03-04 07:44:00,27.3,19.1,29.57,North,349,4.0,8.0,71,0.00,,,0.00,Wunderground v.1.15,2013-03-04 12:44:00,
2013-03-04 07:45:00,27.3,19.1,29.57,NNW,338,4.0,8.0,71,0.00,,,0.00,Wunderground v.1.15,2013-03-04 12:45:00,
2013-03-04 07:48:00,27.4,19.2,29.57,NW,314,4.0,8.0,71,0.00,,,0.00,Wunderground v.1.15,2013-03-04 12:48:00,
2013-03-04 07:49:00,27.4,19.2,29.57,NNW,336,4.0,8.0,71,0.00,,,0.00,Wunderground v.1.15,2013-03-04 12:49:00,
2013-03-04 07:51:00,27.5,19.7,29.57,WNW,286,4.0,5.0,72,0.00,,,0.00,Wunderground v.1.15,2013-03-04 12:51:00,
2013-03-04 07:55:00,27.8,19.6,29.57,NW,306,3.0,9.0,71,0.00,,,0.00,Wunderground v.1.15,2013-03-04 12:55:00,
2013-03-04 07:56:00,27.8,19.6,29.57,NW,306,3.0,9.0,71,0.00,,,0.00,Wunderground v.1.15,2013-03-04 12:56:00,
2013-03-04 07:57:00,27.9,19.7,29.57,NW,312,4.0,9.0,71,0.00,,,0.00,Wunderground v.1.15,2013-03-04 12:57:00,
2013-03-04 08:00:00,28.2,19.7,29.57,NW,324,5.0,10.0,70,0.00,,,0.00,Wunderground v.1.15,2013-03-04 13:00:00,
2013-03-04 08:02:00,28.3,19.8,29.57,West,268,5.0,13.0,70,0.00,,,0.00,Wunderground v.1.15,2013-03-04 13:02:00,
2013-03-04 08:03:00,28.3,19.8,29.57,North,355,6.0,13.0,70,0.00,,,0.00,Wunderground v.1.15,2013-03-04 13:03:00,
2013-03-04 08:08:00,28.4,19.9,29.57,NW,304,7.0,13.0,70,0.00,,,0.00,Wunderground v.1.15,2013-03-04 13:08:00,
2013-03-04 08:10:00,28.5,20.0,29.57,North,351,8.0,13.0,70,0.00,,,0.00,Wunderground v.1.15,2013-03-04 13:10:00,
2013-03-04 08:15:00,28.6,20.1,29.57,WNW,285,7.0,14.0,70,0.00,,,0.00,Wunderground v.1.15,2013-03-04 13:15:00,
2013-03-04 08:17:00,28.5,20.0,29.57,NNW,340,8.0,14.0,70,0.00,,,0.00,Wunderground v.1.15,2013-03-04 13:17:00,
2013-03-04 08:18:00,28.5,20.0,29.57,NW,321,7.0,14.0,70,0.00,,,0.00,Wunderground v.1.15,2013-03-04 13:18:00,
2013-03-04 08:21:00,28.6,20.1,29.57,NNW,330,6.0,10.0,70,0.00,,,0.00,Wunderground v.1.15,2013-03-04 13:21:00,
2013-03-04 08:23:00,28.6,19.7,29.57,North,350,7.0,11.0,69,0.00,,,0.00,Wunderground v.1.15,2013-03-04 13:23:00,
2013-03-04 08:24:00,28.7,20.1,29.57,WNW,298,7.0,11.0,70,0.00,,,0.00,Wunderground v.1.15,2013-03-04 13:24:00,
2013-03-04 08:28:00,28.8,19.9,29.57,West,269,6.0,11.0,69,0.00,,,0.00,Wunderground v.1.15,2013-03-04 13:28:00,
2013-03-04 08:29:00,28.8,19.9,29.57,NNW,331,6.0,11.0,69,0.00,,,0.00,Wunderground v.1.15,2013-03-04 13:29:00,
2013-03-04 08:30:00,29.0,20.1,29.57,NW,319,6.0,6.0,69,0.00,,,0.00,Wunderground v.1.15,2013-03-04 13:30:00,
2013-03-04 08:35:00,29.2,20.3,29.57,WNW,302,6.0,10.0,69,0.00,,,0.00,Wunderground v.1.15,2013-03-04 13:35:00,
2013-03-04 08:36:00,29.2,19.9,29.57,NW,319,6.0,10.0,68,0.00,,,0.00,Wunderground v.1.15,2013-03-04 13:36:00,
2013-03-04 08:38:00,29.3,20.4,29.57,North,355,6.0,14.0,69,0.00,,,0.00,Wunderground v.1.15,2013-03-04 13:38:00,
2013-03-04 08:41:00,29.4,20.1,29.57,NW,324,6.0,10.0,68,0.00,,,0.00,Wunderground v.1.15,2013-03-04 13:41:00,
2013-03-04 08:44:00,29.7,20.4,29.57,NNW,346,6.0,10.0,68,0.00,,,0.00,Wunderground v.1.15,2013-03-04 13:44:00,
2013-03-04 08:45:00,29.7,20.4,29.57,NNW,335,6.0,10.0,68,0.00,,,0.00,Wunderground v.1.15,2013-03-04 13:45:00,
2013-03-04 08:47:00,29.6,20.3,29.57,NW,322,7.0,17.0,68,0.00,,,0.00,Wunderground v.1.15,2013-03-04 13:47:00,
2013-03-04 08:50:00,29.5,20.2,29.57,NW,325,8.0,10.0,68,0.00,,,0.00,Wunderground v.1.15,2013-03-04 13:50:00,
2013-03-04 08:55:00,29.5,20.2,29.57,NNW,331,9.0,13.0,68,0.00,,,0.00,Wunderground v.1.15,2013-03-04 13:55:00,
2013-03-04 08:57:00,29.6,20.3,29.57,NNW,332,9.0,16.0,68,0.00,,,0.00,Wunderground v.1.15,2013-03-04 13:57:00,
2013-03-04 08:58:00,29.6,20.3,29.57,WNW,286,9.0,16.0,68,0.00,,,0.00,Wunderground v.1.15,2013-03-04 13:58:00,
2013-03-04 09:03:00,29.5,20.2,29.56,West,276,11.0,17.0,68,0.00,,,0.00,Wunderground v.1.15,2013-03-04 14:03:00,
2013-03-04 09:06:00,29.5,20.6,29.56,NW,317,12.0,17.0,69,0.00,,,0.00,Wunderground v.1.15,2013-03-04 14:06:00,
2013-03-04 09:09:00,29.7,20.4,29.56,WNW,294,11.0,17.0,68,0.00,,,0.00,Wunderground v.1.15,2013-03-04 14:09:00,
2013-03-04 09:11:00,29.8,20.5,29.57,WNW,284,11.0,17.0,68,0.00,,,0.00,Wunderground v.1.15,2013-03-04 14:11:00,
2013-03-04 09:15:00,29.7,20.4,29.56,WNW,297,11.0,19.0,68,0.00,,,0.00,Wunderground v.1.15,2013-03-04 14:15:00,
2013-03-04 09:16:00,29.7,20.4,29.56,WNW,285,11.0,19.0,68,0.00,,,0.00,Wunderground v.1.15,2013-03-04 14:16:00,
2013-03-04 09:17:00,29.7,20.4,29.56,NW,323,12.0,19.0,68,0.00,,,0.00,Wunderground v.1.15,2013-03-04 14:17:00,
2013-03-04 09:19:00,29.7,20.4,29.56,NNW,336,12.0,19.0,68,0.00,,,0.00,Wunderground v.1.15,2013-03-04 14:19:00,
2013-03-04 09:22:00,30.0,20.7,29.56,North,5,12.0,22.0,68,0.00,,,0.00,Wunderground v.1.15,2013-03-04 14:22:00,
2013-03-04 09:24:00,30.0,20.7,29.56,NW,318,12.0,22.0,68,0.00,,,0.00,Wunderground v.1.15,2013-03-04 14:24:00,
2013-03-04 09:26:00,30.1,20.8,29.57,North,349,11.0,22.0,68,0.00,,,0.00,Wunderground v.1.15,2013-03-04 14:26:00,
2013-03-04 09:27:00,30.2,20.9,29.57,NW,313,10.0,22.0,68,0.00,,,0.00,Wunderground v.1.15,2013-03-04 14:27:00,
2013-03-04 09:28:00,30.3,21.0,29.57,NW,314,10.0,22.0,68,0.00,,,0.00,Wunderground v.1.15,2013-03-04 14:28:00,
2013-03-04 09:33:00,30.3,21.0,29.56,North,355,11.0,17.0,68,0.00,,,0.00,Wunderground v.1.15,2013-03-04 14:33:00,
2013-03-04 09:34:00,30.3,21.0,29.56,NW,318,11.0,17.0,68,0.00,,,0.00,Wunderground v.1.15,2013-03-04 14:34:00,
2013-03-04 09:37:00,30.3,20.6,29.56,NW,321,12.0,17.0,67,0.00,,,0.00,Wunderground v.1.15,2013-03-04 14:37:00,
2013-03-04 09:38:00,30.3,20.6,29.56,NNW,333,12.0,17.0,67,0.00,,,0.00,Wunderground v.1.15,2013-03-04 14:38:00,
2013-03-04 09:39:00,30.3,21.0,29.56,NW,315,11.0,17.0,68,0.00,,,0.00,Wunderground v.1.15,2013-03-04 14:39:00,
2013-03-04 09:43:00,30.4,20.7,29.56,NW,321,10.0,17.0,67,0.00,,,0.00,Wunderground v.1.15,2013-03-04 14:43:00,
2013-03-04 09:44:00,30.5,21.2,29.56,West,261,10.0,17.0,68,0.00,,,0.00,Wunderground v.1.15,2013-03-04 14:44:00,
2013-03-04 09:48:00,30.5,21.2,29.56,NW,324,8.0,17.0,68,0.00,,,0.00,Wunderground v.1.15,2013-03-04 14:48:00,
2013-03-04 09:49:00,30.5,21.2,29.56,West,268,9.0,17.0,68,0.00,,,0.00,Wunderground v.1.15,2013-03-04 14:49:00,
2013-03-04 09:51:00,30.6,21.3,29.56,NNW,333,9.0,21.0,68,0.00,,,0.00,Wunderground v.1.15,2013-03-04 14:51:00,
2013-03-04 09:52:00,30.6,21.3,29.56,NW,326,9.0,21.0,68,0.00,,,0.00,Wunderground v.1.15,2013-03-04 14:52:00,
2013-03-04 09:53:00,30.6,21.3,29.56,NNW,333,9.0,21.0,68,0.00,,,0.00,Wunderground v.1.15,2013-03-04 14:53:00,
2013-03-04 09:55:00,30.7,21.4,29.56,NW,304,10.0,21.0,68,0.00,,,0.00,Wunderground v.1.15,2013-03-04 14:55:00,
2013-03-04 09:57:00,30.9,21.2,29.56,NW,323,10.0,21.0,67,0.00,,,0.00,Wunderground v.1.15,2013-03-04 14:57:00,
2013-03-04 10:00:00,30.7,21.0,29.56,NNW,337,10.0,26.0,67,0.00,,,0.00,Wunderground v.1.15,2013-03-04 15:00:00,
2013-03-04 10:02:00,30.7,21.0,29.56,NNW,342,11.0,26.0,67,0.00,,,0.00,Wunderground v.1.15,2013-03-04 15:02:00,
2013-03-04 10:04:00,30.7,21.0,29.56,WNW,301,11.0,26.0,67,0.00,,,0.00,Wunderground v.1.15,2013-03-04 15:04:00,
2013-03-04 10:06:00,30.7,21.0,29.56,NNW,345,11.0,26.0,67,0.00,,,0.00,Wunderground v.1.15,2013-03-04 15:06:00,
2013-03-04 10:07:00,30.7,21.0,29.56,NNW,335,11.0,26.0,67,0.00,,,0.00,Wunderground v.1.15,2013-03-04 15:07:00,
2013-03-04 10:09:00,30.8,21.1,29.56,NW,325,11.0,26.0,67,0.00,,,0.00,Wunderground v.1.15,2013-03-04 15:09:00,
2013-03-04 10:10:00,30.9,21.6,29.56,North,351,11.0,11.0,68,0.00,,,0.00,Wunderground v.1.15,2013-03-04 15:10:00,
2013-03-04 10:12:00,31.1,21.4,29.56,NNW,328,10.0,26.0,67,0.00,,,0.00,Wunderground v.1.15,2013-03-04 15:12:00,
2013-03-04 10:15:00,31.0,21.3,29.56,NNW,342,10.0,26.0,67,0.00,,,0.00,Wunderground v.1.15,2013-03-04 15:15:00,
2013-03-04 10:16:00,31.0,21.0,29.56,NW,310,10.0,26.0,66,0.00,,,0.00,Wunderground v.1.15,2013-03-04 15:16:00,
2013-03-04 10:17:00,31.0,21.0,29.56,NW,326,10.0,26.0,66,0.00,,,0.00,Wunderground v.1.15,2013-03-04 15:17:00,
2013-03-04 10:18:00,31.1,21.1,29.56,NNW,348,10.0,26.0,66,0.00,,,0.00,Wunderground v.1.15,2013-03-04 15:18:00,
2013-03-04 10:23:00,31.3,21.3,29.56,NW,319,10.0,26.0,66,0.00,,,0.00,Wunderground v.1.15,2013-03-04 15:23:00,
2013-03-04 10:24:00,31.4,21.7,29.56,NNW,333,10.0,26.0,67,0.00,,,0.00,Wunderground v.1.15,2013-03-04 15:24:00,
2013-03-04 10:25:00,31.6,21.9,29.56,NW,304,9.0,26.0,67,0.00,,,0.00,Wunderground v.1.15,2013-03-04 15:25:00,
2013-03-04 10:28:00,31.5,21.4,29.56,NW,314,9.0,26.0,66,0.00,,,0.00,Wunderground v.1.15,2013-03-04 15:28:00,
2013-03-04 10:30:00,31.4,21.0,29.56,NNW,332,9.0,26.0,65,0.00,,,0.00,Wunderground v.1.15,2013-03-04 15:30:00,
2013-03-04 10:32:00,31.5,21.4,29.56,NW,321,8.0,26.0,66,0.00,,,0.00,Wunderground v.1.15,2013-03-04 15:32:00,
2013-03-04 10:33:00,31.6,21.9,29.56,NW,315,8.0,26.0,67,0.00,,,0.00,Wunderground v.1.15,2013-03-04 15:33:00,
2013-03-04 10:34:00,31.6,21.2,29.56,NW,315,8.0,26.0,65,0.00,,,0.00,Wunderground v.1.15,2013-03-04 15:34:00,
2013-03-04 10:36:00,31.7,21.6,29.56,NW,313,8.0,26.0,66,0.00,,,0.00,Wunderground v.1.15,2013-03-04 15:36:00,
2013-03-04 10:39:00,32.1,22.0,29.55,NW,322,6.0,26.0,66,0.00,,,0.00,Wunderground v.1.15,2013-03-04 15:39:00,
2013-03-04 10:40:00,32.2,22.1,29.56,NNW,347,6.0,6.0,66,0.00,,,0.00,Wunderground v.1.15,2013-03-04 15:40:00,
2013-03-04 10:41:00,32.2,22.1,29.55,West,278,6.0,7.0,66,0.00,,,0.00,Wunderground v.1.15,2013-03-04 15:41:00,
2013-03-04 10:42:00,32.2,21.7,29.55,NW,324,6.0,26.0,65,0.00,,,0.00,Wunderground v.1.15,2013-03-04 15:42:00,
2013-03-04 10:46:00,32.3,21.8,29.55,NNW,334,6.0,26.0,65,0.00,,,0.00,Wunderground v.1.15,2013-03-04 15:46:00,
2013-03-04 10:47:00,32.4,21.9,29.55,WNW,300,6.0,26.0,65,0.00,,,0.00,Wunderground v.1.15,2013-03-04 15:47:00,
2013-03-04 10:50:00,32.6,22.1,29.55,WNW,289,7.0,26.0,65,0.00,,,0.00,Wunderground v.1.15,2013-03-04 15:50:00,
2013-03-04 10:52:00,32.8,22.0,29.55,West,271,7.0,26.0,64,0.00,,,0.00,Wunderground v.1.15,2013-03-04 15:52:00,
2013-03-04 10:53:00,32.9,22.0,29.55,NNW,336,8.0,26.0,64,0.00,,,0.00,Wunderground v.1.15,2013-03-04 15:53:00,
2013-03-04 10:56:00,33.5,22.2,29.54,NNW,342,8.0,26.0,63,0.00,,,0.00,Wunderground v.1.15,2013-03-04 15:56:00,
2013-03-04 10:57:00,33.6,22.3,29.54,NW,322,8.0,26.0,63,0.00,,,0.00,Wunderground v.1.15,2013-03-04 15:57:00,
2013-03-04 11:00:00,33.8,22.9,29.54,NNW,340,8.0,8.0,64,0.00,,,0.00,Wunderground v.1.15,2013-03-04 16:00:00,
2013-03-04 11:02:00,34.0,22.7,29.54,West,263,8.0,14.0,63,0.00,,,0.00,Wunderground v.1.15,2013-03-04 16:02:00,
2013-03-04 11:03:00,34.0,23.1,29.54,NW,325,8.0,14.0,64,0.00,,,0.00,Wunderground v.1.15,2013-03-04 16:03:00,
2013-03-04 11:04:00,34.2,23.3,29.54,NNW,333,7.0,14.0,64,0.00,,,0.00,Wunderground v.1.15,2013-03-04 16:04:00,
2013-03-04 11:08:00,33.7,22.1,29.54,North,351,7.0,14.0,62,0.00,,,0.00,Wunderground v.1.15,2013-03-04 16:08:00,
2013-03-04 11:09:00,33.7,22.1,29.54,WNW,283,6.0,14.0,62,0.00,,,0.00,Wunderground v.1.15,2013-03-04 16:09:00,
2013-03-04 11:10:00,33.7,22.4,29.54,NNE,13,6.0,6.0,63,0.00,,,0.00,Wunderground v.1.15,2013-03-04 16:10:00,
2013-03-04 11:13:00,34.1,22.8,29.54,NNW,338,7.0,14.0,63,0.00,,,0.00,Wunderground v.1.15,2013-03-04 16:13:00,
2013-03-04 11:14:00,34.3,23.0,29.54,NW,324,6.0,14.0,63,0.00,,,0.00,Wunderground v.1.15,2013-03-04 16:14:00,
2013-03-04 11:15:00,34.2,22.5,29.54,NW,319,7.0,15.0,62,0.00,,,0.00,Wunderground v.1.15,2013-03-04 16:15:00,
2013-03-04 11:18:00,33.9,21.9,29.54,NW,304,7.0,15.0,61,0.00,,,0.00,Wunderground v.1.15,2013-03-04 16:18:00,
2013-03-04 11:19:00,33.8,21.8,29.54,WNW,288,7.0,15.0,61,0.00,,,0.00,Wunderground v.1.15,2013-03-04 16:19:00,
2013-03-04 11:21:00,33.9,22.2,29.54,WNW,286,7.0,14.0,62,0.00,,,0.00,Wunderground v.1.15,2013-03-04 16:21:00,
2013-03-04 11:23:00,34.2,22.5,29.54,NNW,328,8.0,14.0,62,0.00,,,0.00,Wunderground v.1.15,2013-03-04 16:23:00,
2013-03-04 11:24:00,34.2,22.5,29.54,West,269,8.0,14.0,62,0.00,,,0.00,Wunderground v.1.15,2013-03-04 16:24:00,
2013-03-04 11:26:00,34.1,22.4,29.54,West,276,8.0,14.0,62,0.00,,,0.00,Wunderground v.1.15,2013-03-04 16:26:00,
2013-03-04 11:28:00,34.0,22.3,29.54,NW,309,7.0,14.0,62,0.00,,,0.00,Wunderground v.1.15,2013-03-04 16:28:00,
2013-03-04 11:29:00,34.1,22.4,29.54,WSW,251,7.0,14.0,62,0.00,,,0.00,Wunderground v.1.15,2013-03-04 16:29:00,
2013-03-04 11:33:00,34.4,23.1,29.54,NW,325,6.0,14.0,63,0.00,,,0.00,Wunderground v.1.15,2013-03-04 16:33:00,
2013-03-04 11:35:00,34.7,23.0,29.54,WNW,297,6.0,14.0,62,0.00,,,0.00,Wunderground v.1.15,2013-03-04 16:35:00,
2013-03-04 11:37:00,34.9,22.8,29.54,NNW,336,6.0,14.0,61,0.00,,,0.00,Wunderground v.1.15,2013-03-04 16:37:00,
2013-03-04 11:38:00,34.8,22.7,29.54,North,351,7.0,14.0,61,0.00,,,0.00,Wunderground v.1.15,2013-03-04 16:38:00,
2013-03-04 11:39:00,34.7,22.6,29.54,NW,322,7.0,14.0,61,0.00,,,0.00,Wunderground v.1.15,2013-03-04 16:39:00,
2013-03-04 11:44:00,34.5,22.4,29.54,NW,315,8.0,14.0,61,0.00,,,0.00,Wunderground v.1.15,2013-03-04 16:44:00,
2013-03-04 11:45:00,34.6,22.5,29.54,NW,325,8.0,14.0,61,0.00,,,0.00,Wunderground v.1.15,2013-03-04 16:45:00,
2013-03-04 11:46:00,34.5,22.4,29.54,WNW,302,9.0,14.0,61,0.00,,,0.00,Wunderground v.1.15,2013-03-04 16:46:00,
2013-03-04 11:51:00,34.6,22.9,29.54,WNW,301,8.0,14.0,62,0.00,,,0.00,Wunderground v.1.15,2013-03-04 16:51:00,
2013-03-04 11:52:00,34.7,23.0,29.54,WNW,302,8.0,14.0,62,0.00,,,0.00,Wunderground v.1.15,2013-03-04 16:52:00,
2013-03-04 11:54:00,34.6,22.9,29.54,NW,304,8.0,14.0,62,0.00,,,0.00,Wunderground v.1.15,2013-03-04 16:54:00,
2013-03-04 11:56:00,34.6,22.9,29.54,NW,304,7.0,14.0,62,0.00,,,0.00,Wunderground v.1.15,2013-03-04 16:56:00,
2013-03-04 11:58:00,34.7,23.0,29.54,West,266,6.0,14.0,62,0.00,,,0.00,Wunderground v.1.15,2013-03-04 16:58:00,
2013-03-04 12:00:00,35.0,23.7,29.54,North,349,7.0,7.0,63,0.00,,,0.00,Wunderground v.1.15,2013-03-04 17:00:00,
2013-03-04 12:01:00,35.1,23.8,29.54,NW,311,7.0,16.0,63,0.00,,,0.00,Wunderground v.1.15,2013-03-04 17:01:00,
2013-03-04 12:03:00,35.3,23.2,29.54,NW,313,7.0,16.0,61,0.00,,,0.00,Wunderground v.1.15,2013-03-04 17:03:00,
2013-03-04 12:06:00,34.7,22.2,29.54,WNW,300,8.0,16.0,60,0.00,,,0.00,Wunderground v.1.15,2013-03-04 17:06:00,
2013-03-04 12:07:00,34.6,22.5,29.54,NNW,342,8.0,16.0,61,0.00,,,0.00,Wunderground v.1.15,2013-03-04 17:07:00,
2013-03-04 12:09:00,34.6,22.1,29.54,WNW,293,8.0,16.0,60,0.00,,,0.00,Wunderground v.1.15,2013-03-04 17:09:00,
2013-03-04 12:13:00,34.4,22.3,29.54,WNW,299,10.0,16.0,61,0.00,,,0.00,Wunderground v.1.15,2013-03-04 17:13:00,
2013-03-04 12:15:00,34.4,22.7,29.54,WNW,300,9.0,16.0,62,0.00,,,0.00,Wunderground v.1.15,2013-03-04 17:15:00,
2013-03-04 12:19:00,34.4,22.7,29.54,NNW,333,8.0,16.0,62,0.00,,,0.00,Wunderground v.1.15,2013-03-04 17:19:00,
2013-03-04 12:20:00,34.7,22.6,29.54,WNW,299,7.0,7.0,61,0.00,,,0.00,Wunderground v.1.15,2013-03-04 17:20:00,
2013-03-04 12:21:00,34.7,22.6,29.54,WNW,299,7.0,12.0,61,0.00,,,0.00,Wunderground v.1.15,2013-03-04 17:21:00,
2013-03-04 12:24:00,34.9,22.8,29.54,WNW,287,7.0,16.0,61,0.00,,,0.00,Wunderground v.1.15,2013-03-04 17:24:00,
2013-03-04 12:25:00,34.9,23.2,29.53,WNW,292,7.0,16.0,62,0.00,,,0.00,Wunderground v.1.15,2013-03-04 17:25:00,
2013-03-04 12:26:00,34.7,22.2,29.54,NW,325,7.0,16.0,60,0.00,,,0.00,Wunderground v.1.15,2013-03-04 17:26:00,
2013-03-04 12:27:00,34.8,22.7,29.54,NW,317,7.0,16.0,61,0.00,,,0.00,Wunderground v.1.15,2013-03-04 17:27:00,
2013-03-04 12:30:00,34.8,22.7,29.54,NNW,342,8.0,16.0,61,0.00,,,0.00,Wunderground v.1.15,2013-03-04 17:30:00,
2013-03-04 12:33:00,35.1,23.4,29.54,North,355,8.0,16.0,62,0.00,,,0.00,Wunderground v.1.15,2013-03-04 17:33:00,
2013-03-04 12:36:00,35.1,22.6,29.54,NW,308,8.0,16.0,60,0.00,,,0.00,Wunderground v.1.15,2013-03-04 17:36:00,
2013-03-04 12:38:00,34.9,22.4,29.54,NW,307,9.0,20.0,60,0.00,,,0.00,Wunderground v.1.15,2013-03-04 17:38:00,
2013-03-04 12:39:00,34.9,22.8,29.54,NW,325,10.0,20.0,61,0.00,,,0.00,Wunderground v.1.15,2013-03-04 17:39:00,
2013-03-04 12:42:00,35.0,22.5,29.53,NW,317,10.0,16.0,60,0.00,,,0.00,Wunderground v.1.15,2013-03-04 17:42:00,
2013-03-04 12:44:00,35.1,22.6,29.54,NW,321,10.0,16.0,60,0.00,,,0.00,Wunderground v.1.15,2013-03-04 17:44:00,
2013-03-04 12:45:00,35.1,23.0,29.53,NNW,335,10.0,16.0,61,0.00,,,0.00,Wunderground v.1.15,2013-03-04 17:45:00,
2013-03-04 12:50:00,35.2,22.7,29.54,North,355,10.0,10.0,60,0.00,,,0.00,Wunderground v.1.15,2013-03-04 17:50:00,
2013-03-04 12:51:00,35.2,23.1,29.53,WNW,296,10.0,12.0,61,0.00,,,0.00,Wunderground v.1.15,2013-03-04 17:51:00,
2013-03-04 12:52:00,35.2,22.7,29.53,West,263,10.0,13.0,60,0.00,,,0.00,Wunderground v.1.15,2013-03-04 17:52:00,
2013-03-04 12:55:00,35.0,22.9,29.53,NW,315,10.0,16.0,61,0.00,,,0.00,Wunderground v.1.15,2013-03-04 17:55:00,
2013-03-04 12:57:00,35.0,22.5,29.53,NNE,12,11.0,16.0,60,0.00,,,0.00,Wunderground v.1.15,2013-03-04 17:57:00,
2013-03-04 12:59:00,35.1,22.6,29.53,NNW,338,11.0,16.0,60,0.00,,,0.00,Wunderground v.1.15,2013-03-04 17:59:00,
2013-03-04 13:02:00,35.4,22.9,29.53,North,9,11.0,24.0,60,0.00,,,0.00,Wunderground v.1.15,2013-03-04 18:02:00,
2013-03-04 13:04:00,35.4,22.5,29.53,NNW,331,11.0,24.0,59,0.00,,,0.00,Wunderground v.1.15,2013-03-04 18:04:00,
2013-03-04 13:05:00,35.5,22.6,29.53,North,355,11.0,24.0,59,0.00,,,0.00,Wunderground v.1.15,2013-03-04 18:05:00,
2013-03-04 13:07:00,35.7,23.2,29.53,NNW,333,11.0,24.0,60,0.00,,,0.00,Wunderground v.1.15,2013-03-04 18:07:00,
2013-03-04 13:08:00,35.6,23.1,29.53,WNW,298,11.0,24.0,60,0.00,,,0.00,Wunderground v.1.15,2013-03-04 18:08:00,
2013-03-04 13:12:00,35.7,22.8,29.53,NW,313,11.0,24.0,59,0.00,,,0.00,Wunderground v.1.15,2013-03-04 18:12:00,
2013-03-04 13:13:00,35.7,22.4,29.53,WNW,285,10.0,24.0,58,0.00,,,0.00,Wunderground v.1.15,2013-03-04 18:13:00,
2013-03-04 13:14:00,35.8,22.5,29.53,NNW,327,10.0,24.0,58,0.00,,,0.00,Wunderground v.1.15,2013-03-04 18:14:00,
2013-03-04 13:17:00,36.0,23.0,29.53,NNW,331,10.0,24.0,59,0.00,,,0.00,Wunderground v.1.15,2013-03-04 18:17:00,
2013-03-04 13:19:00,36.1,23.1,29.53,North,355,10.0,24.0,59,0.00,,,0.00,Wunderground v.1.15,2013-03-04 18:19:00,
2013-03-04 13:20:00,36.2,23.6,29.53,NW,319,9.0,9.0,60,0.00,,,0.00,Wunderground v.1.15,2013-03-04 18:20:00,
2013-03-04 13:22:00,36.8,24.2,29.53,North,355,9.0,24.0,60,0.00,,,0.00,Wunderground v.1.15,2013-03-04 18:22:00,
2013-03-04 13:24:00,36.7,22.9,29.53,West,278,9.0,24.0,57,0.00,,,0.00,Wunderground v.1.15,2013-03-04 18:24:00,
2013-03-04 13:27:00,36.1,22.3,29.53,NW,304,9.0,24.0,57,0.00,,,0.00,Wunderground v.1.15,2013-03-04 18:27:00,
2013-03-04 13:30:00,36.3,23.7,29.53,NNW,331,9.0,9.0,60,0.00,,,0.00,Wunderground v.1.15,2013-03-04 18:30:00,
2013-03-04 13:32:00,36.4,23.0,29.53,WNW,290,9.0,24.0,58,0.00,,,0.00,Wunderground v.1.15,2013-03-04 18:32:00,
2013-03-04 13:33:00,36.2,22.8,29.53,NW,313,9.0,24.0,58,0.00,,,0.00,Wunderground v.1.15,2013-03-04 18:33:00,
2013-03-04 13:36:00,35.9,22.5,29.53,NNW,328,8.0,24.0,58,0.00,,,0.00,Wunderground v.1.15,2013-03-04 18:36:00,
2013-03-04 13:38:00,35.8,22.5,29.53,NW,311,8.0,24.0,58,0.00,,,0.00,Wunderground v.1.15,2013-03-04 18:38:00,
2013-03-04 13:40:00,35.7,22.8,29.52,NW,309,8.0,8.0,59,0.00,,,0.00,Wunderground v.1.15,2013-03-04 18:40:00,
2013-03-04 13:41:00,35.8,22.9,29.52,NW,313,8.0,24.0,59,0.00,,,0.00,Wunderground v.1.15,2013-03-04 18:41:00,
2013-03-04 13:45:00,36.2,22.4,29.52,WNW,286,8.0,24.0,57,0.00,,,0.00,Wunderground v.1.15,2013-03-04 18:45:00,
2013-03-04 13:46:00,36.4,23.0,29.52,WNW,296,8.0,24.0,58,0.00,,,0.00,Wunderground v.1.15,2013-03-04 18:46:00,
2013-03-04 13:47:00,36.5,23.1,29.52,NW,312,8.0,24.0,58,0.00,,,0.00,Wunderground v.1.15,2013-03-04 18:47:00,
2013-03-04 13:48:00,36.5,23.1,29.52,NW,312,8.0,24.0,58,0.00,,,0.00,Wunderground v.1.15,2013-03-04 18:48:00,
2013-03-04 13:53:00,37.3,23.9,29.52,North,355,9.0,24.0,58,0.00,,,0.00,Wunderground v.1.15,2013-03-04 18:53:00,
2013-03-04 13:55:00,37.6,23.7,29.52,NNW,335,9.0,24.0,57,0.00,,,0.00,Wunderground v.1.15,2013-03-04 18:55:00,
2013-03-04 13:57:00,37.3,22.6,29.52,WNW,288,9.0,24.0,55,0.00,,,0.00,Wunderground v.1.15,2013-03-04 18:57:00,
2013-03-04 13:58:00,37.4,23.1,29.52,NW,323,9.0,24.0,56,0.00,,,0.00,Wunderground v.1.15,2013-03-04 18:58:00,
2013-03-04 14:00:00,37.3,23.0,29.52,NNW,340,8.0,19.0,56,0.00,,,0.00,Wunderground v.1.15,2013-03-04 19:00:00,
2013-03-04 14:03:00,37.0,22.7,29.52,NNW,336,8.0,19.0,56,0.00,,,0.00,Wunderground v.1.15,2013-03-04 19:03:00,
2013-03-04 14:04:00,37.0,22.7,29.52,WNW,296,9.0,19.0,56,0.00,,,0.00,Wunderground v.1.15,2013-03-04 19:04:00,
2013-03-04 14:09:00,37.3,23.4,29.52,NNW,329,9.0,19.0,57,0.00,,,0.00,Wunderground v.1.15,2013-03-04 19:09:00,
2013-03-04 14:10:00,37.2,22.9,29.52,NNW,336,9.0,14.0,56,0.00,,,0.00,Wunderground v.1.15,2013-03-04 19:10:00,
2013-03-04 14:11:00,37.3,23.4,29.52,North,360,9.0,14.0,57,0.00,,,0.00,Wunderground v.1.15,2013-03-04 19:11:00,
2013-03-04 14:15:00,37.3,23.4,29.52,NW,325,8.0,14.0,57,0.00,,,0.00,Wunderground v.1.15,2013-03-04 19:15:00,
2013-03-04 14:19:00,37.4,23.1,29.52,NW,322,8.0,14.0,56,0.00,,,0.00,Wunderground v.1.15,2013-03-04 19:19:00,
2013-03-04 14:20:00,37.4,22.7,29.52,NW,304,8.0,16.0,55,0.00,,,0.00,Wunderground v.1.15,2013-03-04 19:20:00,
2013-03-04 14:21:00,37.5,23.2,29.52,WNW,298,9.0,16.0,56,0.00,,,0.00,Wunderground v.1.15,2013-03-04 19:21:00,
2013-03-04 14:22:00,37.5,23.6,29.52,WNW,300,9.0,16.0,57,0.00,,,0.00,Wunderground v.1.15,2013-03-04 19:22:00,
2013-03-04 14:25:00,37.3,23.4,29.52,West,273,11.0,16.0,57,0.00,,,0.00,Wunderground v.1.15,2013-03-04 19:25:00,
2013-03-04 14:27:00,37.4,22.7,29.52,NW,324,10.0,16.0,55,0.00,,,0.00,Wunderground v.1.15,2013-03-04 19:27:00,
2013-03-04 14:28:00,37.7,23.4,29.52,WNW,290,10.0,16.0,56,0.00,,,0.00,Wunderground v.1.15,2013-03-04 19:28:00,
2013-03-04 14:31:00,37.7,23.4,29.52,WNW,296,10.0,16.0,56,0.00,,,0.00,Wunderground v.1.15,2013-03-04 19:31:00,
2013-03-04 14:34:00,37.7,23.0,29.53,NNW,342,10.0,16.0,55,0.00,,,0.00,Wunderground v.1.15,2013-03-04 19:34:00,
2013-03-04 14:36:00,37.6,23.3,29.52,WNW,298,10.0,16.0,56,0.00,,,0.00,Wunderground v.1.15,2013-03-04 19:36:00,
2013-03-04 14:39:00,37.4,22.7,29.52,NNW,336,10.0,16.0,55,0.00,,,0.00,Wunderground v.1.15,2013-03-04 19:39:00,
2013-03-04 14:42:00,37.0,22.3,29.53,NW,316,10.0,14.0,55,0.00,,,0.00,Wunderground v.1.15,2013-03-04 19:42:00,
2013-03-04 14:43:00,36.9,22.7,29.53,West,279,10.0,14.0,56,0.00,,,0.00,Wunderground v.1.15,2013-03-04 19:43:00,
2013-03-04 14:44:00,36.8,22.6,29.53,NW,323,10.0,14.0,56,0.00,,,0.00,Wunderground v.1.15,2013-03-04 19:44:00,
2013-03-04 14:48:00,36.6,22.4,29.53,NW,304,11.0,14.0,56,0.00,,,0.00,Wunderground v.1.15,2013-03-04 19:48:00,
2013-03-04 14:49:00,36.6,22.4,29.53,WNW,294,11.0,18.0,56,0.00,,,0.00,Wunderground v.1.15,2013-03-04 19:49:00,
2013-03-04 14:53:00,36.5,22.7,29.53,NNW,344,11.0,17.0,57,0.00,,,0.00,Wunderground v.1.15,2013-03-04 19:53:00,
2013-03-04 14:55:00,36.6,22.8,29.53,West,281,10.0,17.0,57,0.00,,,0.00,Wunderground v.1.15,2013-03-04 19:55:00,
2013-03-04 14:58:00,36.6,22.4,29.53,NW,314,10.0,17.0,56,0.00,,,0.00,Wunderground v.1.15,2013-03-04 19:58:00,
2013-03-04 14:59:00,36.6,22.4,29.53,NNW,341,10.0,17.0,56,0.00,,,0.00,Wunderground v.1.15,2013-03-04 19:59:00,
2013-03-04 15:00:00,36.5,22.3,29.53,NW,316,10.0,19.0,56,0.00,,,0.00,Wunderground v.1.15,2013-03-04 20:00:00,
2013-03-04 15:01:00,36.5,22.3,29.53,NNW,339,10.0,19.0,56,0.00,,,0.00,Wunderground v.1.15,2013-03-04 20:01:00,
2013-03-04 15:05:00,36.6,23.6,29.53,North,5,10.0,19.0,59,0.00,,,0.00,Wunderground v.1.15,2013-03-04 20:05:00,
2013-03-04 15:08:00,36.9,22.7,29.53,West,270,8.0,19.0,56,0.00,,,0.00,Wunderground v.1.15,2013-03-04 20:08:00,
2013-03-04 15:09:00,36.9,22.7,29.53,WNW,282,8.0,19.0,56,0.00,,,0.00,Wunderground v.1.15,2013-03-04 20:09:00,
2013-03-04 15:12:00,36.9,22.7,29.53,WNW,291,7.0,19.0,56,0.00,,,0.00,Wunderground v.1.15,2013-03-04 20:12:00,
2013-03-04 15:14:00,36.8,22.6,29.53,NNW,344,7.0,19.0,56,0.00,,,0.00,Wunderground v.1.15,2013-03-04 20:14:00,
2013-03-04 15:15:00,36.9,22.7,29.53,NNW,346,7.0,19.0,56,0.00,,,0.00,Wunderground v.1.15,2013-03-04 20:15:00,
2013-03-04 15:16:00,36.9,22.7,29.53,NW,317,8.0,19.0,56,0.00,,,0.00,Wunderground v.1.15,2013-03-04 20:16:00,
2013-03-04 15:20:00,36.9,23.1,29.54,WNW,286,8.0,8.0,57,0.00,,,0.00,Wunderground v.1.15,2013-03-04 20:20:00,
2013-03-04 15:21:00,36.8,22.6,29.54,NW,326,9.0,9.0,56,0.00,,,0.00,Wunderground v.1.15,2013-03-04 20:21:00,
2013-03-04 15:22:00,36.7,22.9,29.54,NNW,338,9.0,19.0,57,0.00,,,0.00,Wunderground v.1.15,2013-03-04 20:22:00,
2013-03-04 15:24:00,36.5,22.7,29.54,NNW,345,10.0,19.0,57,0.00,,,0.00,Wunderground v.1.15,2013-03-04 20:24:00,
2013-03-04 15:25:00,36.4,22.6,29.54,NW,324,10.0,19.0,57,0.00,,,0.00,Wunderground v.1.15,2013-03-04 20:25:00,
2013-03-04 15:26:00,36.4,22.6,29.54,NNW,331,11.0,19.0,57,0.00,,,0.00,Wunderground v.1.15,2013-03-04 20:26:00,
2013-03-04 15:27:00,36.3,22.9,29.54,NW,321,11.0,19.0,58,0.00,,,0.00,Wunderground v.1.15,2013-03-04 20:27:00,
2013-03-04 15:31:00,36.3,22.9,29.54,NW,316,11.0,19.0,58,0.00,,,0.00,Wunderground v.1.15,2013-03-04 20:31:00,
2013-03-04 15:32:00,36.3,22.5,29.54,WSW,250,10.0,19.0,57,0.00,,,0.00,Wunderground v.1.15,2013-03-04 20:32:00,
2013-03-04 15:33:00,36.3,22.5,29.54,NW,309,9.0,19.0,57,0.00,,,0.00,Wunderground v.1.15,2013-03-04 20:33:00,
2013-03-04 15:36:00,36.2,22.8,29.54,NW,312,8.0,19.0,58,0.00,,,0.00,Wunderground v.1.15,2013-03-04 20:36:00,
2013-03-04 15:38:00,36.3,22.9,29.54,WNW,299,7.0,19.0,58,0.00,,,0.00,Wunderground v.1.15,2013-03-04 20:38:00,
2013-03-04 15:40:00,36.3,22.9,29.54,NNW,340,6.0,6.0,58,0.00,,,0.00,Wunderground v.1.15,2013-03-04 20:40:00,
2013-03-04 15:42:00,36.6,23.2,29.54,NNW,339,6.0,19.0,58,0.00,,,0.00,Wunderground v.1.15,2013-03-04 20:42:00,
2013-03-04 15:44:00,36.8,23.0,29.54,NW,326,5.0,19.0,57,0.00,,,0.00,Wunderground v.1.15,2013-03-04 20:44:00,
2013-03-04 15:45:00,36.8,23.4,29.54,NNW,344,5.0,19.0,58,0.00,,,0.00,Wunderground v.1.15,2013-03-04 20:45:00,
2013-03-04 15:47:00,36.6,22.8,29.54,NNW,340,6.0,19.0,57,0.00,,,0.00,Wunderground v.1.15,2013-03-04 20:47:00,
2013-03-04 15:49:00,36.4,23.0,29.54,NW,321,7.0,19.0,58,0.00,,,0.00,Wunderground v.1.15,2013-03-04 20:49:00,
2013-03-04 15:52:00,36.1,22.3,29.54,NW,321,9.0,19.0,57,0.00,,,0.00,Wunderground v.1.15,2013-03-04 20:52:00,
2013-03-04 15:53:00,36.0,22.6,29.54,NW,320,10.0,19.0,58,0.00,,,0.00,Wunderground v.1.15,2013-03-04 20:53:00,
2013-03-04 15:54:00,36.0,22.6,29.54,NW,323,10.0,19.0,58,0.00,,,0.00,Wunderground v.1.15,2013-03-04 20:54:00,
2013-03-04 15:57:00,35.9,23.0,29.55,NNW,339,11.0,19.0,59,0.00,,,0.00,Wunderground v.1.15,2013-03-04 20:57:00,
2013-03-04 15:58:00,36.0,22.6,29.55,NW,325,10.0,19.0,58,0.00,,,0.00,Wunderground v.1.15,2013-03-04 20:58:00,
2013-03-04 15:59:00,35.9,22.5,29.55,NNW,331,10.0,19.0,58,0.00,,,0.00,Wunderground v.1.15,2013-03-04 20:59:00,
2013-03-04 16:02:00,35.9,22.5,29.55,NNW,338,8.0,21.0,58,0.00,,,0.00,Wunderground v.1.15,2013-03-04 21:02:00,
2013-03-04 16:06:00,35.9,23.0,29.55,NNW,330,7.0,21.0,59,0.00,,,0.00,Wunderground v.1.15,2013-03-04 21:06:00,
2013-03-04 16:07:00,35.9,23.0,29.55,NNW,342,7.0,21.0,59,0.00,,,0.00,Wunderground v.1.15,2013-03-04 21:07:00,
2013-03-04 16:10:00,35.8,22.5,29.55,NNW,333,7.0,7.0,58,0.00,,,0.00,Wunderground v.1.15,2013-03-04 21:10:00,
2013-03-04 16:11:00,35.8,22.5,29.55,WNW,288,7.0,8.0,58,0.00,,,0.00,Wunderground v.1.15,2013-03-04 21:11:00,
2013-03-04 16:15:00,35.8,22.5,29.55,NNW,333,6.0,21.0,58,0.00,,,0.00,Wunderground v.1.15,2013-03-04 21:15:00,
2013-03-04 16:16:00,35.7,22.4,29.55,West,271,6.0,21.0,58,0.00,,,0.00,Wunderground v.1.15,2013-03-04 21:16:00,
2013-03-04 16:17:00,35.6,22.3,29.55,NW,322,6.0,21.0,58,0.00,,,0.00,Wunderground v.1.15,2013-03-04 21:17:00,
2013-03-04 16:20:00,35.3,22.0,29.55,NW,313,7.0,21.0,58,0.00,,,0.00,Wunderground v.1.15,2013-03-04 21:20:00,
2013-03-04 16:21:00,35.3,22.0,29.55,WSW,238,7.0,21.0,58,0.00,,,0.00,Wunderground v.1.15,2013-03-04 21:21:00,
2013-03-04 16:22:00,35.3,22.0,29.55,NNW,344,8.0,21.0,58,0.00,,,0.00,Wunderground v.1.15,2013-03-04 21:22:00,
2013-03-04 16:24:00,35.2,22.3,29.55,WNW,300,8.0,21.0,59,0.00,,,0.00,Wunderground v.1.15,2013-03-04 21:24:00,
2013-03-04 16:27:00,35.1,22.6,29.56,WNW,301,9.0,21.0,60,0.00,,,0.00,Wunderground v.1.15,2013-03-04 21:27:00,
2013-03-04 16:28:00,35.0,22.1,29.56,WSW,254,8.0,21.0,59,0.00,,,0.00,Wunderground v.1.15,2013-03-04 21:28:00,
2013-03-04 16:30:00,34.9,22.0,29.56,NNW,345,8.0,8.0,59,0.00,,,0.00,Wunderground v.1.15,2013-03-04 21:30:00,
2013-03-04 16:32:00,34.8,21.9,29.56,North,5,8.0,21.0,59,0.00,,,0.00,Wunderground v.1.15,2013-03-04 21:32:00,
2013-03-04 16:33:00,34.8,21.9,29.56,NNW,342,9.0,21.0,59,0.00,,,0.00,Wunderground v.1.15,2013-03-04 21:33:00,
2013-03-04 16:38:00,34.3,21.8,29.56,NW,322,9.0,21.0,60,0.00,,,0.00,Wunderground v.1.15,2013-03-04 21:38:00,
2013-03-04 16:39:00,34.3,22.2,29.56,NW,315,9.0,21.0,61,0.00,,,0.00,Wunderground v.1.15,2013-03-04 21:39:00,
2013-03-04 16:41:00,34.2,22.1,29.56,WNW,303,9.0,21.0,61,0.00,,,0.00,Wunderground v.1.15,2013-03-04 21:41:00,
2013-03-04 16:42:00,34.2,22.1,29.56,NW,313,8.0,21.0,61,0.00,,,0.00,Wunderground v.1.15,2013-03-04 21:42:00,
2013-03-04 16:43:00,34.1,22.0,29.56,West,278,8.0,21.0,61,0.00,,,0.00,Wunderground v.1.15,2013-03-04 21:43:00,
2013-03-04 16:44:00,34.1,22.0,29.57,NW,311,8.0,21.0,61,0.00,,,0.00,Wunderground v.1.15,2013-03-04 21:44:00,
2013-03-04 16:49:00,34.1,22.0,29.57,NNW,348,7.0,21.0,61,0.00,,,0.00,Wunderground v.1.15,2013-03-04 21:49:00,
2013-03-04 16:50:00,34.0,22.0,29.57,NNW,329,8.0,8.0,61,0.00,,,0.00,Wunderground v.1.15,2013-03-04 21:50:00,
2013-03-04 16:51:00,34.0,22.0,29.57,WSW,247,8.0,21.0,61,0.00,,,0.00,Wunderground v.1.15,2013-03-04 21:51:00,
2013-03-04 16:52:00,33.9,21.9,29.57,NNW,342,7.0,21.0,61,0.00,,,0.00,Wunderground v.1.15,2013-03-04 21:52:00,
2013-03-04 16:55:00,33.9,21.9,29.57,NW,324,7.0,21.0,61,0.00,,,0.00,Wunderground v.1.15,2013-03-04 21:55:00,
2013-03-04 16:56:00,33.9,21.9,29.57,NW,308,7.0,21.0,61,0.00,,,0.00,Wunderground v.1.15,2013-03-04 21:56:00,
2013-03-04 16:57:00,33.9,22.2,29.57,NNW,336,7.0,21.0,62,0.00,,,0.00,Wunderground v.1.15,2013-03-04 21:57:00,
2013-03-04 17:00:00,33.8,21.8,29.57,NNW,331,7.0,21.0,61,0.00,,,0.00,Wunderground v.1.15,2013-03-04 22:00:00,
2013-03-04 17:03:00,33.7,22.1,29.57,WNW,286,7.0,21.0,62,0.00,,,0.00,Wunderground v.1.15,2013-03-04 22:03:00,
2013-03-04 17:04:00,33.7,21.7,29.57,West,276,7.0,21.0,61,0.00,,,0.00,Wunderground v.1.15,2013-03-04 22:04:00,
2013-03-04 17:05:00,33.8,22.1,29.57,NNW,342,6.0,21.0,62,0.00,,,0.00,Wunderground v.1.15,2013-03-04 22:05:00,
2013-03-04 17:08:00,33.8,21.8,29.57,WNW,300,6.0,21.0,61,0.00,,,0.00,Wunderground v.1.15,2013-03-04 22:08:00,
2013-03-04 17:09:00,33.8,21.8,29.58,North,350,6.0,21.0,61,0.00,,,0.00,Wunderground v.1.15,2013-03-04 22:09:00,
2013-03-04 17:10:00,33.7,21.7,29.58,NW,318,6.0,21.0,61,0.00,,,0.00,Wunderground v.1.15,2013-03-04 22:10:00,
2013-03-04 17:13:00,33.8,21.8,29.58,NW,324,6.0,21.0,61,0.00,,,0.00,Wunderground v.1.15,2013-03-04 22:13:00,
2013-03-04 17:15:00,33.7,22.1,29.58,North,5,6.0,21.0,62,0.00,,,0.00,Wunderground v.1.15,2013-03-04 22:15:00,
2013-03-04 17:16:00,33.7,22.1,29.58,NNW,328,7.0,21.0,62,0.00,,,0.00,Wunderground v.1.15,2013-03-04 22:16:00,
2013-03-04 17:17:00,33.6,21.6,29.58,NNW,339,7.0,21.0,61,0.00,,,0.00,Wunderground v.1.15,2013-03-04 22:17:00,
2013-03-04 17:22:00,33.4,21.4,29.58,NNW,338,8.0,21.0,61,0.00,,,0.00,Wunderground v.1.15,2013-03-04 22:22:00,
2013-03-04 17:23:00,33.4,21.4,29.58,North,360,8.0,21.0,61,0.00,,,0.00,Wunderground v.1.15,2013-03-04 22:23:00,
2013-03-04 17:24:00,33.4,21.8,29.58,NNW,329,8.0,21.0,62,0.00,,,0.00,Wunderground v.1.15,2013-03-04 22:24:00,
2013-03-04 17:25:00,33.4,22.1,29.58,North,11,8.0,21.0,63,0.00,,,0.00,Wunderground v.1.15,2013-03-04 22:25:00,
2013-03-04 17:27:00,33.4,21.8,29.58,NNW,334,8.0,21.0,62,0.00,,,0.00,Wunderground v.1.15,2013-03-04 22:27:00,
2013-03-04 17:29:00,33.3,22.1,29.58,WNW,287,7.0,21.0,63,0.00,,,0.00,Wunderground v.1.15,2013-03-04 22:29:00,
2013-03-04 17:32:00,33.2,21.6,29.58,NW,318,7.0,21.0,62,0.00,,,0.00,Wunderground v.1.15,2013-03-04 22:32:00,
2013-03-04 17:33:00,33.2,21.6,29.59,WSW,244,7.0,21.0,62,0.00,,,0.00,Wunderground v.1.15,2013-03-04 22:33:00,
2013-03-04 17:34:00,33.1,21.5,29.59,NW,309,7.0,21.0,62,0.00,,,0.00,Wunderground v.1.15,2013-03-04 22:34:00,
2013-03-04 17:39:00,32.9,21.7,29.59,NW,322,9.0,21.0,63,0.00,,,0.00,Wunderground v.1.15,2013-03-04 22:39:00,
2013-03-04 17:40:00,32.9,22.0,29.59,WNW,299,9.0,21.0,64,0.00,,,0.00,Wunderground v.1.15,2013-03-04 22:40:00,
2013-03-04 17:43:00,32.8,21.6,29.59,WNW,296,8.0,21.0,63,0.00,,,0.00,Wunderground v.1.15,2013-03-04 22:43:00,
2013-03-04 17:46:00,32.7,21.5,29.59,NW,325,8.0,21.0,63,0.00,,,0.00,Wunderground v.1.15,2013-03-04 22:46:00,
2013-03-04 17:48:00,32.6,21.8,29.59,NW,309,8.0,21.0,64,0.00,,,0.00,Wunderground v.1.15,2013-03-04 22:48:00,
2013-03-04 17:51:00,32.6,21.8,29.60,NNW,340,8.0,21.0,64,0.00,,,0.00,Wunderground v.1.15,2013-03-04 22:51:00,
2013-03-04 17:52:00,32.6,21.8,29.60,North,5,8.0,21.0,64,0.00,,,0.00,Wunderground v.1.15,2013-03-04 22:52:00,
2013-03-04 17:54:00,32.5,21.7,29.60,NW,315,9.0,21.0,64,0.00,,,0.00,Wunderground v.1.15,2013-03-04 22:54:00,
2013-03-04 17:55:00,32.5,22.0,29.60,West,267,8.0,21.0,65,0.00,,,0.00,Wunderground v.1.15,2013-03-04 22:55:00,
2013-03-04 17:57:00,32.5,21.7,29.60,NW,311,8.0,21.0,64,0.00,,,0.00,Wunderground v.1.15,2013-03-04 22:57:00,
2013-03-04 17:59:00,32.4,21.6,29.60,NNW,339,9.0,21.0,64,0.00,,,0.00,Wunderground v.1.15,2013-03-04 22:59:00,
2013-03-04 18:02:00,32.3,21.8,29.60,NW,321,8.0,19.0,65,0.00,,,0.00,Wunderground v.1.15,2013-03-04 23:02:00,
2013-03-04 18:04:00,32.3,21.8,29.60,West,262,8.0,19.0,65,0.00,,,0.00,Wunderground v.1.15,2013-03-04 23:04:00,
2013-03-04 18:05:00,32.3,21.8,29.60,NNW,336,8.0,19.0,65,0.00,,,0.00,Wunderground v.1.15,2013-03-04 23:05:00,
2013-03-04 18:09:00,32.2,21.7,29.60,WNW,293,8.0,19.0,65,0.00,,,0.00,Wunderground v.1.15,2013-03-04 23:09:00,
2013-03-04 18:10:00,32.2,21.7,29.60,West,269,8.0,8.0,65,0.00,,,0.00,Wunderground v.1.15,2013-03-04 23:10:00,
2013-03-04 18:11:00,32.2,21.7,29.61,NNW,344,7.0,19.0,65,0.00,,,0.00,Wunderground v.1.15,2013-03-04 23:11:00,
2013-03-04 18:15:00,32.1,22.0,29.61,NW,309,8.0,19.0,66,0.00,,,0.00,Wunderground v.1.15,2013-03-04 23:15:00,
2013-03-04 18:16:00,32.1,22.0,29.61,WNW,302,8.0,19.0,66,0.00,,,0.00,Wunderground v.1.15,2013-03-04 23:16:00,
2013-03-04 18:17:00,32.0,21.9,29.61,NNW,333,8.0,19.0,66,0.00,,,0.00,Wunderground v.1.15,2013-03-04 23:17:00,
2013-03-04 18:18:00,32.0,21.9,29.61,NNW,328,8.0,19.0,66,0.00,,,0.00,Wunderground v.1.15,2013-03-04 23:18:00,
2013-03-04 18:21:00,31.9,22.2,29.61,NW,315,8.0,19.0,67,0.00,,,0.00,Wunderground v.1.15,2013-03-04 23:21:00,
2013-03-04 18:23:00,31.8,22.4,29.61,West,260,8.0,19.0,68,0.00,,,0.00,Wunderground v.1.15,2013-03-04 23:23:00,
2013-03-04 18:24:00,31.8,22.1,29.61,WNW,290,8.0,19.0,67,0.00,,,0.00,Wunderground v.1.15,2013-03-04 23:24:00,
2013-03-04 18:25:00,31.7,22.0,29.61,West,267,8.0,19.0,67,0.00,,,0.00,Wunderground v.1.15,2013-03-04 23:25:00,
2013-03-04 18:29:00,31.7,22.3,29.61,West,263,7.0,19.0,68,0.00,,,0.00,Wunderground v.1.15,2013-03-04 23:29:00,
2013-03-04 18:31:00,31.5,22.1,29.62,WNW,299,7.0,8.0,68,0.00,,,0.00,Wunderground v.1.15,2013-03-04 23:31:00,
2013-03-04 18:35:00,31.4,22.1,29.62,WNW,286,7.0,19.0,68,0.00,,,0.00,Wunderground v.1.15,2013-03-04 23:35:00,
2013-03-04 18:36:00,31.4,22.1,29.62,WNW,290,7.0,19.0,68,0.00,,,0.00,Wunderground v.1.15,2013-03-04 23:36:00,
2013-03-04 18:38:00,31.3,22.0,29.62,West,278,8.0,19.0,68,0.00,,,0.00,Wunderground v.1.15,2013-03-04 23:38:00,
2013-03-04 18:40:00,31.3,22.3,29.62,NW,304,7.0,7.0,69,0.00,,,0.00,Wunderground v.1.15,2013-03-04 23:40:00,
2013-03-04 18:44:00,31.2,22.2,29.62,WNW,296,7.0,19.0,69,0.00,,,0.00,Wunderground v.1.15,2013-03-04 23:44:00,
2013-03-04 18:45:00,31.2,22.2,29.62,NW,325,7.0,19.0,69,0.00,,,0.00,Wunderground v.1.15,2013-03-04 23:45:00,
2013-03-04 18:50:00,31.2,21.9,29.62,WNW,293,6.0,19.0,68,0.00,,,0.00,Wunderground v.1.15,2013-03-04 23:50:00,
2013-03-04 18:52:00,31.1,22.1,29.62,NW,323,6.0,19.0,69,0.00,,,0.00,Wunderground v.1.15,2013-03-04 23:52:00,
2013-03-04 18:53:00,31.1,22.1,29.62,West,266,6.0,19.0,69,0.00,,,0.00,Wunderground v.1.15,2013-03-04 23:53:00,
2013-03-04 18:55:00,31.1,22.1,29.63,West,273,7.0,19.0,69,0.00,,,0.00,Wunderground v.1.15,2013-03-04 23:55:00,
2013-03-04 18:57:00,31.0,22.0,29.63,WNW,291,8.0,19.0,69,0.00,,,0.00,Wunderground v.1.15,2013-03-04 23:57:00,
2013-03-04 19:00:00,31.0,22.0,29.63,WNW,291,8.0,8.0,69,0.00,,,0.00,Wunderground v.1.15,2013-03-05 00:00:00,
2013-03-04 19:02:00,31.0,22.0,29.63,NW,304,7.0,15.0,69,0.00,,,0.00,Wunderground v.1.15,2013-03-05 00:02:00,
2013-03-04 19:03:00,30.9,21.9,29.63,NNW,331,8.0,15.0,69,0.00,,,0.00,Wunderground v.1.15,2013-03-05 00:03:00,
2013-03-04 19:04:00,31.0,22.0,29.63,NNW,335,7.0,15.0,69,0.00,,,0.00,Wunderground v.1.15,2013-03-05 00:04:00,
2013-03-04 19:07:00,31.0,22.0,29.63,WNW,282,7.0,15.0,69,0.00,,,0.00,Wunderground v.1.15,2013-03-05 00:07:00,
2013-03-04 19:09:00,31.0,22.4,29.63,NW,304,6.0,15.0,70,0.00,,,0.00,Wunderground v.1.15,2013-03-05 00:09:00,
2013-03-04 19:10:00,31.0,22.4,29.63,West,263,6.0,15.0,70,0.00,,,0.00,Wunderground v.1.15,2013-03-05 00:10:00,
2013-03-04 19:11:00,31.0,22.4,29.63,WNW,303,6.0,15.0,70,0.00,,,0.00,Wunderground v.1.15,2013-03-05 00:11:00,
2013-03-04 19:14:00,31.0,22.4,29.63,West,277,6.0,15.0,70,0.00,,,0.00,Wunderground v.1.15,2013-03-05 00:14:00,
2013-03-04 19:16:00,30.9,22.3,29.63,NNW,327,6.0,15.0,70,0.00,,,0.00,Wunderground v.1.15,2013-03-05 00:16:00,
2013-03-04 19:17:00,31.0,22.4,29.63,West,274,6.0,15.0,70,0.00,,,0.00,Wunderground v.1.15,2013-03-05 00:17:00,
2013-03-04 19:19:00,31.0,22.4,29.63,WNW,292,6.0,15.0,70,0.00,,,0.00,Wunderground v.1.15,2013-03-05 00:19:00,
2013-03-04 19:20:00,31.0,22.4,29.63,NNW,333,7.0,15.0,70,0.00,,,0.00,Wunderground v.1.15,2013-03-05 00:20:00,
2013-03-04 19:25:00,30.9,22.6,29.63,West,273,5.0,15.0,71,0.00,,,0.00,Wunderground v.1.15,2013-03-05 00:25:00,
2013-03-04 19:26:00,30.9,22.6,29.64,WNW,297,5.0,15.0,71,0.00,,,0.00,Wunderground v.1.15,2013-03-05 00:26:00,
2013-03-04 19:28:00,30.8,22.8,29.64,WNW,282,6.0,15.0,72,0.00,,,0.00,Wunderground v.1.15,2013-03-05 00:28:00,
2013-03-04 19:30:00,30.8,22.8,29.64,NNW,329,5.0,5.0,72,0.00,,,0.00,Wunderground v.1.15,2013-03-05 00:30:00,
2013-03-04 19:33:00,30.7,23.1,29.64,WNW,285,6.0,15.0,73,0.00,,,0.00,Wunderground v.1.15,2013-03-05 00:33:00,
2013-03-04 19:35:00,30.7,23.4,29.64,NW,323,6.0,15.0,74,0.00,,,0.00,Wunderground v.1.15,2013-03-05 00:35:00,
2013-03-04 19:37:00,30.6,23.3,29.64,NW,313,6.0,15.0,74,0.00,,,0.00,Wunderground v.1.15,2013-03-05 00:37:00,
2013-03-04 19:40:00,30.7,23.4,29.64,NW,319,5.0,15.0,74,0.00,,,0.00,Wunderground v.1.15,2013-03-05 00:40:00,
2013-03-04 19:43:00,30.6,23.3,29.64,NNW,338,5.0,15.0,74,0.00,,,0.00,Wunderground v.1.15,2013-03-05 00:43:00,
2013-03-04 19:46:00,30.5,23.2,29.64,WNW,298,5.0,15.0,74,0.00,,,0.00,Wunderground v.1.15,2013-03-05 00:46:00,
2013-03-04 19:47:00,30.6,23.3,29.64,North,350,5.0,15.0,74,0.00,,,0.00,Wunderground v.1.15,2013-03-05 00:47:00,
2013-03-04 19:48:00,30.6,23.0,29.64,WNW,283,5.0,15.0,73,0.00,,,0.00,Wunderground v.1.15,2013-03-05 00:48:00,
2013-03-04 19:49:00,30.6,23.0,29.64,NNW,328,5.0,15.0,73,0.00,,,0.00,Wunderground v.1.15,2013-03-05 00:49:00,
2013-03-04 19:53:00,30.7,22.7,29.64,West,265,5.0,15.0,72,0.00,,,0.00,Wunderground v.1.15,2013-03-05 00:53:00,
2013-03-04 19:54:00,30.7,22.7,29.64,West,280,5.0,15.0,72,0.00,,,0.00,Wunderground v.1.15,2013-03-05 00:54:00,
2013-03-04 19:55:00,30.7,22.7,29.64,NW,314,5.0,15.0,72,0.00,,,0.00,Wunderground v.1.15,2013-03-05 00:55:00,
2013-03-04 19:58:00,30.8,22.8,29.64,NW,319,6.0,15.0,72,0.00,,,0.00,Wunderground v.1.15,2013-03-05 00:58:00,
2013-03-04 19:59:00,30.7,22.7,29.64,NNW,329,6.0,15.0,72,0.00,,,0.00,Wunderground v.1.15,2013-03-05 00:59:00,
2013-03-04 20:04:00,30.8,22.5,29.64,NNW,332,6.0,11.0,71,0.00,,,0.00,Wunderground v.1.15,2013-03-05 01:04:00,
2013-03-04 20:05:00,30.9,22.9,29.64,NNW,330,6.0,11.0,72,0.00,,,0.00,Wunderground v.1.15,2013-03-05 01:05:00,
2013-03-04 20:06:00,30.9,22.9,29.64,NNW,330,6.0,11.0,72,0.00,,,0.00,Wunderground v.1.15,2013-03-05 01:06:00,
2013-03-04 20:09:00,30.9,22.6,29.64,WNW,294,6.0,11.0,71,0.00,,,0.00,Wunderground v.1.15,2013-03-05 01:09:00,
2013-03-04 20:11:00,30.9,22.6,29.65,NNW,333,6.0,11.0,71,0.00,,,0.00,Wunderground v.1.15,2013-03-05 01:11:00,
2013-03-04 20:14:00,31.0,22.7,29.64,NW,314,5.0,11.0,71,0.00,,,0.00,Wunderground v.1.15,2013-03-05 01:14:00,
2013-03-04 20:15:00,31.0,23.0,29.65,WNW,301,5.0,11.0,72,0.00,,,0.00,Wunderground v.1.15,2013-03-05 01:15:00,
2013-03-04 20:18:00,31.0,22.7,29.64,NW,308,5.0,11.0,71,0.00,,,0.00,Wunderground v.1.15,2013-03-05 01:18:00,
2013-03-04 20:21:00,31.1,22.8,29.65,WNW,298,5.0,11.0,71,0.00,,,0.00,Wunderground v.1.15,2013-03-05 01:21:00,
2013-03-04 20:22:00,31.1,22.8,29.65,NNW,335,5.0,11.0,71,0.00,,,0.00,Wunderground v.1.15,2013-03-05 01:22:00,
2013-03-04 20:23:00,31.1,22.8,29.65,NW,309,5.0,11.0,71,0.00,,,0.00,Wunderground v.1.15,2013-03-05 01:23:00,
2013-03-04 20:24:00,31.1,22.8,29.65,NNW,327,5.0,11.0,71,0.00,,,0.00,Wunderground v.1.15,2013-03-05 01:24:00,
2013-03-04 20:27:00,31.1,22.8,29.65,NNW,335,4.0,11.0,71,0.00,,,0.00,Wunderground v.1.15,2013-03-05 01:27:00,
2013-03-04 20:28:00,31.2,22.9,29.65,NNW,338,4.0,11.0,71,0.00,,,0.00,Wunderground v.1.15,2013-03-05 01:28:00,
2013-03-04 20:29:00,31.2,22.9,29.65,NNW,338,3.0,11.0,71,0.00,,,0.00,Wunderground v.1.15,2013-03-05 01:29:00,
2013-03-04 20:32:00,31.2,23.2,29.65,NNW,346,2.0,11.0,72,0.00,,,0.00,Wunderground v.1.15,2013-03-05 01:32:00,
2013-03-04 20:34:00,31.2,22.9,29.65,NNW,346,2.0,11.0,71,0.00,,,0.00,Wunderground v.1.15,2013-03-05 01:34:00,
2013-03-04 20:35:00,31.2,22.9,29.65,NNW,346,2.0,11.0,71,0.00,,,0.00,Wunderground v.1.15,2013-03-05 01:35:00,
2013-03-04 20:38:00,31.3,23.0,29.65,NNW,346,1.0,11.0,71,0.00,,,0.00,Wunderground v.1.15,2013-03-05 01:38:00,
2013-03-04 20:39:00,31.3,23.0,29.65,NNW,346,1.0,11.0,71,0.00,,,0.00,Wunderground v.1.15,2013-03-05 01:39:00,
2013-03-04 20:42:00,31.5,23.2,29.65,NNW,344,1.0,11.0,71,0.00,,,0.00,Wunderground v.1.15,2013-03-05 01:42:00,
2013-03-04 20:43:00,31.5,23.2,29.65,North,350,1.0,11.0,71,0.00,,,0.00,Wunderground v.1.15,2013-03-05 01:43:00,
2013-03-04 20:48:00,31.7,23.4,29.66,North,9,1.0,11.0,71,0.00,,,0.00,Wunderground v.1.15,2013-03-05 01:48:00,
2013-03-04 20:50:00,31.8,23.1,29.66,North,9,1.0,1.0,70,0.00,,,0.00,Wunderground v.1.15,2013-03-05 01:50:00,
2013-03-04 20:51:00,31.8,23.1,29.66,NNE,26,1.0,5.0,70,0.00,,,0.00,Wunderground v.1.15,2013-03-05 01:51:00,
2013-03-04 20:53:00,31.8,23.1,29.66,NNE,32,1.0,11.0,70,0.00,,,0.00,Wunderground v.1.15,2013-03-05 01:53:00,
2013-03-04 20:55:00,31.8,23.1,29.66,NE,34,1.0,11.0,70,0.00,,,0.00,Wunderground v.1.15,2013-03-05 01:55:00,
2013-03-04 20:56:00,31.8,23.1,29.66,NE,34,1.0,11.0,70,0.00,,,0.00,Wunderground v.1.15,2013-03-05 01:56:00,
2013-03-04 20:58:00,31.8,23.1,29.66,NNE,32,2.0,11.0,70,0.00,,,0.00,Wunderground v.1.15,2013-03-05 01:58:00,
2013-03-04 20:59:00,31.8,23.1,29.66,NE,34,2.0,11.0,70,0.00,,,0.00,Wunderground v.1.15,2013-03-05 01:59:00,
2013-03-04 21:00:00,31.8,23.1,29.66,NNE,33,2.0,2.0,70,0.00,,,0.00,Wunderground v.1.15,2013-03-05 02:00:00,
2013-03-04 21:05:00,31.7,23.0,29.66,North,350,3.0,9.0,70,0.00,,,0.00,Wunderground v.1.15,2013-03-05 02:05:00,
2013-03-04 21:06:00,31.7,23.0,29.67,North,5,3.0,9.0,70,0.00,,,0.00,Wunderground v.1.15,2013-03-05 02:06:00,
2013-03-04 21:07:00,31.7,23.0,29.67,NNE,18,3.0,9.0,70,0.00,,,0.00,Wunderground v.1.15,2013-03-05 02:07:00,
2013-03-04 21:08:00,31.7,23.0,29.67,NNE,25,3.0,9.0,70,0.00,,,0.00,Wunderground v.1.15,2013-03-05 02:08:00,
2013-03-04 21:10:00,31.7,22.7,29.67,NNE,28,3.0,6.0,69,0.00,,,0.00,Wunderground v.1.15,2013-03-05 02:10:00,
2013-03-04 21:13:00,31.7,22.7,29.67,NE,41,3.0,6.0,69,0.00,,,0.00,Wunderground v.1.15,2013-03-05 02:13:00,
2013-03-04 21:15:00,31.6,22.9,29.67,North,5,3.0,6.0,70,0.00,,,0.00,Wunderground v.1.15,2013-03-05 02:15:00,
2013-03-04 21:16:00,31.6,22.6,29.67,North,5,3.0,6.0,69,0.00,,,0.00,Wunderground v.1.15,2013-03-05 02:16:00,
2013-03-04 21:20:00,31.5,22.8,29.67,ENE,67,3.0,3.0,70,0.00,,,0.00,Wunderground v.1.15,2013-03-05 02:20:00,
2013-03-04 21:21:00,31.5,22.8,29.67,North,5,3.0,4.0,70,0.00,,,0.00,Wunderground v.1.15,2013-03-05 02:21:00,
2013-03-04 21:25:00,31.4,22.7,29.67,NNE,28,3.0,5.0,70,0.00,,,0.00,Wunderground v.1.15,2013-03-05 02:25:00,
2013-03-04 21:26:00,31.4,22.7,29.67,NNE,28,3.0,5.0,70,0.00,,,0.00,Wunderground v.1.15,2013-03-05 02:26:00,
2013-03-04 21:28:00,31.4,22.7,29.67,NNE,27,4.0,5.0,70,0.00,,,0.00,Wunderground v.1.15,2013-03-05 02:28:00,
2013-03-04 21:29:00,31.4,22.7,29.67,NNE,25,3.0,7.0,70,0.00,,,0.00,Wunderground v.1.15,2013-03-05 02:29:00,
2013-03-04 21:31:00,31.3,22.6,29.67,North,5,4.0,5.0,70,0.00,,,0.00,Wunderground v.1.15,2013-03-05 02:31:00,
2013-03-04 21:35:00,31.2,22.5,29.67,NNE,25,4.0,9.0,70,0.00,,,0.00,Wunderground v.1.15,2013-03-05 02:35:00,
2013-03-04 21:36:00,31.2,22.5,29.67,NNE,28,4.0,9.0,70,0.00,,,0.00,Wunderground v.1.15,2013-03-05 02:36:00,
2013-03-04 21:37:00,31.2,22.5,29.67,NNE,27,4.0,9.0,70,0.00,,,0.00,Wunderground v.1.15,2013-03-05 02:37:00,
2013-03-04 21:38:00,31.2,22.5,29.67,NNE,23,4.0,9.0,70,0.00,,,0.00,Wunderground v.1.15,2013-03-05 02:38:00,
2013-03-04 21:41:00,31.1,22.5,29.67,NNE,20,4.0,10.0,70,0.00,,,0.00,Wunderground v.1.15,2013-03-05 02:41:00,
2013-03-04 21:42:00,31.1,22.5,29.67,NNE,23,4.0,10.0,70,0.00,,,0.00,Wunderground v.1.15,2013-03-05 02:42:00,
2013-03-04 21:43:00,31.1,22.5,29.67,NNE,23,4.0,10.0,70,0.00,,,0.00,Wunderground v.1.15,2013-03-05 02:43:00,
2013-03-04 21:45:00,31.0,22.4,29.68,North,5,3.0,10.0,70,0.00,,,0.00,Wunderground v.1.15,2013-03-05 02:45:00,
2013-03-04 21:47:00,31.0,22.4,29.67,NNE,30,3.0,10.0,70,0.00,,,0.00,Wunderground v.1.15,2013-03-05 02:47:00,
2013-03-04 21:50:00,31.0,22.7,29.68,North,351,3.0,4.0,71,0.00,,,0.00,Wunderground v.1.15,2013-03-05 02:50:00,
2013-03-04 21:52:00,31.0,22.7,29.67,NNW,345,3.0,5.0,71,0.00,,,0.00,Wunderground v.1.15,2013-03-05 02:52:00,
2013-03-04 21:54:00,31.0,22.7,29.67,North,355,4.0,5.0,71,0.00,,,0.00,Wunderground v.1.15,2013-03-05 02:54:00,
2013-03-04 21:55:00,31.0,22.7,29.67,NNE,24,4.0,5.0,71,0.00,,,0.00,Wunderground v.1.15,2013-03-05 02:55:00,
2013-03-04 21:57:00,30.9,22.6,29.67,NNE,23,3.0,5.0,71,0.00,,,0.00,Wunderground v.1.15,2013-03-05 02:57:00,
2013-03-04 21:59:00,30.9,22.3,29.68,NNE,20,4.0,5.0,70,0.00,,,0.00,Wunderground v.1.15,2013-03-05 02:59:00,
2013-03-04 22:01:00,30.9,22.3,29.68,NNE,14,3.0,10.0,70,0.00,,,0.00,Wunderground v.1.15,2013-03-05 03:01:00,
2013-03-04 22:04:00,30.9,22.3,29.68,NNE,30,3.0,10.0,70,0.00,,,0.00,Wunderground v.1.15,2013-03-05 03:04:00,
2013-03-04 22:05:00,30.9,22.3,29.68,NNE,29,3.0,10.0,70,0.00,,,0.00,Wunderground v.1.15,2013-03-05 03:05:00,
2013-03-04 22:10:00,30.9,22.3,29.68,NNE,33,3.0,10.0,70,0.00,,,0.00,Wunderground v.1.15,2013-03-05 03:10:00,
2013-03-04 22:12:00,30.8,22.2,29.68,NNE,32,3.0,10.0,70,0.00,,,0.00,Wunderground v.1.15,2013-03-05 03:12:00,
2013-03-04 22:16:00,30.8,22.2,29.68,NNE,25,2.0,10.0,70,0.00,,,0.00,Wunderground v.1.15,2013-03-05 03:16:00,
2013-03-04 22:17:00,30.8,22.2,29.68,NE,34,3.0,10.0,70,0.00,,,0.00,Wunderground v.1.15,2013-03-05 03:17:00,
2013-03-04 22:19:00,30.8,22.2,29.68,North,5,3.0,10.0,70,0.00,,,0.00,Wunderground v.1.15,2013-03-05 03:19:00,
2013-03-04 22:21:00,30.8,22.2,29.68,NNE,32,3.0,10.0,70,0.00,,,0.00,Wunderground v.1.15,2013-03-05 03:21:00,
2013-03-04 22:22:00,30.8,22.2,29.68,NNE,32,3.0,10.0,70,0.00,,,0.00,Wunderground v.1.15,2013-03-05 03:22:00,
2013-03-04 22:23:00,30.7,22.1,29.68,NNE,32,3.0,10.0,70,0.00,,,0.00,Wunderground v.1.15,2013-03-05 03:23:00,
2013-03-04 22:26:00,30.7,22.1,29.68,NNE,25,2.0,10.0,70,0.00,,,0.00,Wunderground v.1.15,2013-03-05 03:26:00,
2013-03-04 22:28:00,30.7,22.4,29.68,NNE,24,2.0,10.0,71,0.00,,,0.00,Wunderground v.1.15,2013-03-05 03:28:00,
2013-03-04 22:30:00,30.7,22.4,29.68,NNE,24,1.0,1.0,71,0.00,,,0.00,Wunderground v.1.15,2013-03-05 03:30:00,
2013-03-04 22:31:00,30.7,22.1,29.68,NNE,24,1.0,10.0,70,0.00,,,0.00,Wunderground v.1.15,2013-03-05 03:31:00,
2013-03-04 22:33:00,30.7,22.4,29.68,NE,43,1.0,10.0,71,0.00,,,0.00,Wunderground v.1.15,2013-03-05 03:33:00,
2013-03-04 22:35:00,30.7,22.1,29.68,NNE,13,2.0,10.0,70,0.00,,,0.00,Wunderground v.1.15,2013-03-05 03:35:00,
2013-03-04 22:37:00,30.6,22.0,29.69,NNE,13,2.0,10.0,70,0.00,,,0.00,Wunderground v.1.15,2013-03-05 03:37:00,
2013-03-04 22:38:00,30.7,22.1,29.68,NNE,13,2.0,10.0,70,0.00,,,0.00,Wunderground v.1.15,2013-03-05 03:38:00,
2013-03-04 22:41:00,30.7,22.1,29.69,North,360,2.0,10.0,70,0.00,,,0.00,Wunderground v.1.15,2013-03-05 03:41:00,
2013-03-04 22:43:00,30.7,22.1,29.69,North,5,3.0,10.0,70,0.00,,,0.00,Wunderground v.1.15,2013-03-05 03:43:00,
2013-03-04 22:45:00,30.7,22.1,29.69,NNE,17,2.0,10.0,70,0.00,,,0.00,Wunderground v.1.15,2013-03-05 03:45:00,
2013-03-04 22:46:00,30.7,22.1,29.69,NNE,17,2.0,10.0,70,0.00,,,0.00,Wunderground v.1.15,2013-03-05 03:46:00,
2013-03-04 22:50:00,30.7,22.1,29.69,NNE,17,2.0,2.0,70,0.00,,,0.00,Wunderground v.1.15,2013-03-05 03:50:00,
2013-03-04 22:51:00,30.7,22.1,29.69,NNE,17,1.0,10.0,70,0.00,,,0.00,Wunderground v.1.15,2013-03-05 03:51:00,
2013-03-04 22:52:00,30.7,22.1,29.69,NNE,17,1.0,10.0,70,0.00,,,0.00,Wunderground v.1.15,2013-03-05 03:52:00,
2013-03-04 22:54:00,30.7,22.1,29.69,NNE,17,1.0,10.0,70,0.00,,,0.00,Wunderground v.1.15,2013-03-05 03:54:00,
2013-03-04 22:56:00,30.8,22.2,29.69,NNE,17,1.0,10.0,70,0.00,,,0.00,Wunderground v.1.15,2013-03-05 03:56:00,
2013-03-04 23:00:00,30.8,22.2,29.69,NNE,17,0.0,7.0,70,0.00,,,0.00,Wunderground v.1.15,2013-03-05 04:00:00,
2013-03-04 23:01:00,30.7,22.1,29.69,NNE,17,0.0,7.0,70,0.00,,,0.00,Wunderground v.1.15,2013-03-05 04:01:00,
2013-03-04 23:02:00,30.7,22.1,29.69,NNE,17,0.0,7.0,70,0.00,,,0.00,Wunderground v.1.15,2013-03-05 04:02:00,
2013-03-04 23:03:00,30.7,22.1,29.69,NNE,17,0.0,7.0,70,0.00,,,0.00,Wunderground v.1.15,2013-03-05 04:03:00,
2013-03-04 23:07:00,30.7,22.1,29.69,NNE,22,0.0,7.0,70,0.00,,,0.00,Wunderground v.1.15,2013-03-05 04:07:00,
2013-03-04 23:08:00,30.7,22.1,29.69,NNE,23,1.0,7.0,70,0.00,,,0.00,Wunderground v.1.15,2013-03-05 04:08:00,
2013-03-04 23:11:00,30.7,22.1,29.69,NNE,23,1.0,7.0,70,0.00,,,0.00,Wunderground v.1.15,2013-03-05 04:11:00,
2013-03-04 23:12:00,30.7,22.4,29.69,NNE,23,1.0,7.0,71,0.00,,,0.00,Wunderground v.1.15,2013-03-05 04:12:00,
2013-03-04 23:13:00,30.7,22.1,29.69,NNE,23,0.0,7.0,70,0.00,,,0.00,Wunderground v.1.15,2013-03-05 04:13:00,
2013-03-04 23:16:00,30.7,22.1,29.69,NNE,23,0.0,7.0,70,0.00,,,0.00,Wunderground v.1.15,2013-03-05 04:16:00,
2013-03-04 23:18:00,30.7,22.1,29.69,NNE,23,0.0,7.0,70,0.00,,,0.00,Wunderground v.1.15,2013-03-05 04:18:00,
2013-03-04 23:19:00,30.7,22.1,29.69,NNE,22,0.0,7.0,70,0.00,,,0.00,Wunderground v.1.15,2013-03-05 04:19:00,
2013-03-04 23:21:00,30.7,22.1,29.69,NNE,22,1.0,7.0,70,0.00,,,0.00,Wunderground v.1.15,2013-03-05 04:21:00,
2013-03-04 23:23:00,30.7,22.1,29.69,NNE,22,1.0,7.0,70,0.00,,,0.00,Wunderground v.1.15,2013-03-05 04:23:00,
2013-03-04 23:24:00,30.7,22.1,29.69,NNE,22,1.0,7.0,70,0.00,,,0.00,Wunderground v.1.15,2013-03-05 04:24:00,
2013-03-04 23:28:00,30.6,22.0,29.69,NE,40,2.0,7.0,70,0.00,,,0.00,Wunderground v.1.15,2013-03-05 04:28:00,
2013-03-04 23:31:00,30.6,22.0,29.69,North,5,2.0,7.0,70,0.00,,,0.00,Wunderground v.1.15,2013-03-05 04:31:00,
2013-03-04 23:33:00,30.6,22.0,29.69,North,5,2.0,7.0,70,0.00,,,0.00,Wunderground v.1.15,2013-03-05 04:33:00,
2013-03-04 23:34:00,30.6,22.0,29.69,NNE,15,2.0,7.0,70,0.00,,,0.00,Wunderground v.1.15,2013-03-05 04:34:00,
2013-03-04 23:35:00,30.6,22.0,29.69,NNE,26,2.0,7.0,70,0.00,,,0.00,Wunderground v.1.15,2013-03-05 04:35:00,
2013-03-04 23:38:00,30.6,22.0,29.69,NE,49,2.0,7.0,70,0.00,,,0.00,Wunderground v.1.15,2013-03-05 04:38:00,
2013-03-04 23:39:00,30.6,21.6,29.69,NNE,30,3.0,7.0,69,0.00,,,0.00,Wunderground v.1.15,2013-03-05 04:39:00,
2013-03-04 23:40:00,30.6,21.6,29.69,NNE,30,2.0,2.0,69,0.00,,,0.00,Wunderground v.1.15,2013-03-05 04:40:00,
2013-03-04 23:45:00,30.5,21.9,29.69,North,360,3.0,7.0,70,0.00,,,0.00,Wunderground v.1.15,2013-03-05 04:45:00,
2013-03-04 23:46:00,30.5,21.9,29.69,North,360,2.0,7.0,70,0.00,,,0.00,Wunderground v.1.15,2013-03-05 04:46:00,
2013-03-04 23:49:00,30.6,22.0,29.70,North,360,1.0,7.0,70,0.00,,,0.00,Wunderground v.1.15,2013-03-05 04:49:00,
2013-03-04 23:51:00,30.6,22.0,29.70,NE,42,2.0,7.0,70,0.00,,,0.00,Wunderground v.1.15,2013-03-05 04:51:00,
2013-03-04 23:54:00,30.5,21.9,29.70,NE,42,1.0,7.0,70,0.00,,,0.00,Wunderground v.1.15,2013-03-05 04:54:00,
2013-03-04 23:55:00,30.6,22.0,29.70,NNE,22,1.0,7.0,70,0.00,,,0.00,Wunderground v.1.15,2013-03-05 04:55:00,
2013-03-04 23:57:00,30.5,21.9,29.70,NE,34,2.0,8.0,70,0.00,,,0.00,Wunderground v.1.15,2013-03-05 04:57:00,